| time (UTC) | temp F | wind direction | speed MPH | gust MPH | rain 1hr in | rain 24hr in | rain mn in | humidity % | barometer mb |
| 20260506091232 | 92 | 135 | 56.0 | 0.0 | 0.00 | 0.00 | 0.00 | 62 | 916.3 |
| 20260506091124 | 91 | 225 | 2.0 | 0.0 | 0.00 | 0.00 | 0.00 | 62 | 916.2 |
| 20260506091016 | 91 | 270 | 3.0 | 0.0 | 0.00 | 0.00 | 0.00 | 61 | 916.3 |
| 20260506090907 | 91 | 90 | 18.0 | 0.0 | 0.00 | 0.00 | 0.00 | 59 | 916.3 |
| 20260506090759 | 91 | 90 | 45.0 | 0.0 | 0.00 | 0.00 | 0.00 | 58 | 916.3 |
| 20260506090650 | 92 | 225 | 92.0 | 0.0 | 0.00 | 0.00 | 0.00 | 57 | 916.3 |
| 20260506090542 | 93 | 180 | 71.0 | 0.0 | 0.00 | 0.00 | 0.00 | 57 | 916.2 |
| 20260506090433 | 93 | 180 | 43.0 | 0.0 | 0.00 | 0.00 | 0.00 | 58 | 916.2 |
| 20260506090325 | 94 | 270 | 60.0 | 0.0 | 0.00 | 0.00 | 0.00 | 59 | 916.2 |
| 20260506090216 | 94 | 225 | 89.0 | 0.0 | 0.00 | 0.00 | 0.00 | 59 | 916.2 |
| 20260506090108 | 94 | 180 | 69.0 | 0.0 | 0.00 | 0.00 | 0.00 | 63 | 916.2 |
| 20260506090000 | 94 | 180 | 9.0 | 0.0 | 0.00 | 0.00 | 0.00 | 65 | 916.3 |
| 20260506085851 | 93 | 45 | 37.0 | 0.0 | 0.00 | 0.00 | 0.00 | 65 | 916.3 |
| 20260506085743 | 92 | 315 | 18.0 | 0.0 | 0.00 | 0.00 | 0.00 | 65 | 916.4 |
| 20260506085634 | 91 | 315 | 23.0 | 0.0 | 0.00 | 0.00 | 0.00 | 65 | 916.3 |
| 20260506085526 | 91 | 90 | 2.0 | 0.0 | 0.00 | 0.00 | 0.00 | 66 | 916.3 |
| 20260506085417 | 90 | 315 | 9.0 | 0.0 | 0.00 | 0.00 | 0.00 | 65 | 916.3 |
| 20260506085309 | 90 | 0 | 25.0 | 0.0 | 0.00 | 0.00 | 0.00 | 64 | 916.3 |
| 20260506085201 | 90 | 315 | 11.0 | 0.0 | 0.00 | 0.00 | 0.00 | 64 | 916.3 |
| 20260506085052 | 90 | 45 | 9.0 | 0.0 | 0.00 | 0.00 | 0.00 | 64 | 916.3 |
| 20260506084944 | 90 | 90 | 28.0 | 0.0 | 0.00 | 0.00 | 0.00 | 63 | 916.3 |
| 20260506084835 | 90 | 90 | 16.0 | 0.0 | 0.00 | 0.00 | 0.00 | 63 | 916.3 |
| 20260506084727 | 90 | 45 | 27.0 | 0.0 | 0.00 | 0.00 | 0.00 | 64 | 916.4 |
| 20260506084618 | 90 | 90 | 33.0 | 0.0 | 0.00 | 0.00 | 0.00 | 65 | 916.4 |
| 20260506084510 | 90 | 45 | 7.0 | 0.0 | 0.00 | 0.00 | 0.00 | 67 | 916.4 |
| 20260506084401 | 90 | 0 | 36.0 | 0.0 | 0.00 | 0.00 | 0.00 | 67 | 916.3 |
| 20260506084253 | 90 | 45 | 54.0 | 0.0 | 0.00 | 0.00 | 0.00 | 67 | 916.3 |
| 20260506084145 | 89 | 0 | 30.0 | 0.0 | 0.00 | 0.00 | 0.00 | 67 | 916.3 |
| 20260506084036 | 89 | 45 | 26.0 | 0.0 | 0.00 | 0.00 | 0.00 | 68 | 916.3 |
| 20260506083928 | 89 | 45 | 33.0 | 0.0 | 0.00 | 0.00 | 0.00 | 67 | 916.4 |
| 20260506083819 | 88 | 0 | 46.0 | 0.0 | 0.00 | 0.00 | 0.00 | 67 | 916.3 |
| 20260506083711 | 88 | 0 | 48.0 | 0.0 | 0.00 | 0.00 | 0.00 | 67 | 916.4 |
| 20260506083602 | 88 | 0 | 46.0 | 0.0 | 0.00 | 0.00 | 0.00 | 67 | 916.4 |
| 20260506083454 | 87 | 45 | 35.0 | 0.0 | 0.00 | 0.00 | 0.00 | 69 | 916.4 |
| 20260506083346 | 86 | 315 | 44.0 | 0.0 | 0.00 | 0.00 | 0.00 | 69 | 916.4 |
| 20260506083237 | 85 | 0 | 33.0 | 0.0 | 0.00 | 0.00 | 0.00 | 70 | 916.4 |
| 20260506083129 | 84 | 90 | 28.0 | 0.0 | 0.00 | 0.00 | 0.00 | 70 | 916.5 |
| 20260506083020 | 83 | 0 | 33.0 | 0.0 | 0.00 | 0.00 | 0.00 | 70 | 916.6 |
| 20260506082912 | 82 | 0 | 9.0 | 0.0 | 0.00 | 0.00 | 0.00 | 70 | 916.6 |
| 20260506082803 | 81 | 0 | 18.0 | 0.0 | 0.00 | 0.00 | 0.00 | 71 | 916.6 |
| 20260506082655 | 80 | 315 | 30.0 | 0.0 | 0.00 | 0.00 | 0.00 | 71 | 916.5 |
| 20260506082546 | 79 | 45 | 22.0 | 0.0 | 0.00 | 0.00 | 0.00 | 71 | 916.6 |
| 20260506082438 | 78 | 45 | 64.0 | 0.0 | 0.00 | 0.00 | 0.00 | 70 | 916.6 |
| 20260506082330 | 77 | 315 | 32.0 | 0.0 | 0.00 | 0.00 | 0.00 | 70 | 916.5 |
| 20260506082221 | 77 | 0 | 94.0 | 0.0 | 0.00 | 0.00 | 0.00 | 70 | 916.6 |
| 20260506082113 | 76 | 0 | 8.0 | 0.0 | 0.00 | 0.00 | 0.00 | 70 | 916.5 |
| 20260506082004 | 76 | 315 | 36.0 | 0.0 | 0.00 | 0.00 | 0.00 | 69 | 916.6 |
| 20260506081856 | 75 | 0 | 39.0 | 0.0 | 0.00 | 0.00 | 0.00 | 68 | 916.6 |
| 20260506081747 | 75 | 0 | 32.0 | 0.0 | 0.00 | 0.00 | 0.00 | 68 | 916.6 |
| 20260506081639 | 75 | 315 | 20.0 | 0.0 | 0.00 | 0.00 | 0.00 | 69 | 916.6 |
| 20260506081530 | 75 | 315 | 16.0 | 0.0 | 0.00 | 0.00 | 0.00 | 69 | 916.7 |
| 20260506081422 | 74 | 225 | 38.0 | 0.0 | 0.00 | 0.00 | 0.00 | 71 | 916.7 |
| 20260506081314 | 74 | 270 | 21.0 | 0.0 | 0.00 | 0.00 | 0.00 | 73 | 916.7 |
| 20260506081206 | 73 | 45 | 42.0 | 0.0 | 0.00 | 0.00 | 0.00 | 74 | 916.7 |
| 20260506081057 | 71 | 315 | 35.0 | 0.0 | 0.00 | 0.00 | 0.00 | 74 | 916.7 |
| 20260506080948 | 69 | 315 | 28.0 | 0.0 | 0.00 | 0.00 | 0.00 | 72 | 916.8 |
| 20260506080840 | 68 | 45 | 18.0 | 0.0 | 0.00 | 0.00 | 0.00 | 71 | 916.8 |
| 20260506080731 | 67 | 45 | 34.0 | 0.0 | 0.00 | 0.00 | 0.00 | 70 | 916.9 |
| 20260506080623 | 67 | 90 | 20.0 | 0.0 | 0.00 | 0.00 | 0.00 | 70 | 916.9 |
| 20260506080514 | 66 | 0 | 50.0 | 0.0 | 0.00 | 0.00 | 0.00 | 70 | 916.9 |
| 20260506080406 | 66 | 0 | 50.0 | 0.0 | 0.00 | 0.00 | 0.00 | 70 | 916.9 |
| 20260506080258 | 66 | 315 | 9.0 | 0.0 | 0.00 | 0.00 | 0.00 | 70 | 917.0 |
| 20260506080149 | 66 | 315 | 18.0 | 0.0 | 0.00 | 0.00 | 0.00 | 70 | 916.9 |
| 20260506073427 | 72 | 135 | 46.0 | 0.0 | 0.00 | 0.00 | 0.00 | 68 | 916.9 |
| 20260506073318 | 72 | 0 | 11.0 | 0.0 | 0.00 | 0.00 | 0.00 | 68 | 916.9 |
| 20260506073210 | 72 | 0 | 55.0 | 0.0 | 0.00 | 0.00 | 0.00 | 68 | 916.9 |
| 20260506073101 | 72 | 0 | 47.0 | 0.0 | 0.00 | 0.00 | 0.00 | 68 | 917.0 |
| 20260506072953 | 72 | 45 | 15.0 | 0.0 | 0.00 | 0.00 | 0.00 | 67 | 917.0 |
| 20260506072844 | 72 | 315 | 23.0 | 0.0 | 0.00 | 0.00 | 0.00 | 67 | 917.0 |
| 20260506072736 | 73 | 315 | 56.0 | 0.0 | 0.00 | 0.00 | 0.00 | 66 | 917.0 |
| 20260506072627 | 73 | 315 | 26.0 | 0.0 | 0.00 | 0.00 | 0.00 | 66 | 917.0 |
| 20260506072519 | 73 | 0 | 20.0 | 0.0 | 0.00 | 0.00 | 0.00 | 65 | 917.0 |
| 20260506072411 | 74 | 0 | 39.0 | 0.0 | 0.00 | 0.00 | 0.00 | 65 | 917.0 |
| 20260506072305 | 74 | 45 | 8.0 | 0.0 | 0.00 | 0.00 | 0.00 | 65 | 917.0 |
| 20260506072154 | 75 | 270 | 53.0 | 0.0 | 0.00 | 0.00 | 0.00 | 64 | 917.0 |
| 20260506072045 | 76 | 45 | 18.0 | 0.0 | 0.00 | 0.00 | 0.00 | 64 | 916.9 |
| 20260506071937 | 76 | 0 | 46.0 | 0.0 | 0.00 | 0.00 | 0.00 | 64 | 917.0 |
| 20260506071828 | 77 | 45 | 19.0 | 0.0 | 0.00 | 0.00 | 0.00 | 64 | 916.9 |
| 20260506071720 | 78 | 315 | 68.0 | 0.0 | 0.00 | 0.00 | 0.00 | 64 | 917.0 |
| 20260506071612 | 78 | 0 | 49.0 | 0.0 | 0.00 | 0.00 | 0.00 | 64 | 916.9 |
| 20260506071503 | 78 | 45 | 13.0 | 0.0 | 0.00 | 0.00 | 0.00 | 64 | 917.0 |
| 20260506071355 | 78 | 180 | 19.0 | 0.0 | 0.00 | 0.00 | 0.00 | 64 | 917.0 |
| 20260506071246 | 78 | 315 | 3.0 | 0.0 | 0.00 | 0.00 | 0.00 | 65 | 917.0 |
| 20260506071138 | 78 | 90 | 18.0 | 0.0 | 0.00 | 0.00 | 0.00 | 65 | 917.1 |
| 20260506071029 | 77 | 0 | 23.0 | 0.0 | 0.00 | 0.00 | 0.00 | 65 | 917.1 |
| 20260506070921 | 77 | 315 | 45.0 | 0.0 | 0.00 | 0.00 | 0.00 | 65 | 917.1 |
| 20260506070812 | 76 | 0 | 63.0 | 0.0 | 0.00 | 0.00 | 0.00 | 65 | 917.2 |
| 20260506070704 | 76 | 0 | 24.0 | 0.0 | 0.00 | 0.00 | 0.00 | 65 | 917.1 |
| 20260506070556 | 75 | 315 | 24.0 | 0.0 | 0.00 | 0.00 | 0.00 | 65 | 917.2 |
| 20260506070447 | 74 | 45 | 35.0 | 0.0 | 0.00 | 0.00 | 0.00 | 65 | 917.1 |
| 20260506070339 | 74 | 0 | 35.0 | 0.0 | 0.00 | 0.00 | 0.00 | 65 | 917.2 |
| 20260506070230 | 74 | 0 | 37.0 | 0.0 | 0.00 | 0.00 | 0.00 | 66 | 917.1 |
| 20260506070122 | 73 | 45 | 59.0 | 0.0 | 0.00 | 0.00 | 0.00 | 66 | 917.1 |
| 20260506062452 | 65 | 0 | 26.0 | 0.0 | 0.00 | 0.00 | 0.00 | 69 | 917.6 |
| 20260506062343 | 65 | 0 | 49.0 | 0.0 | 0.00 | 0.00 | 0.00 | 69 | 917.6 |
| 20260506062235 | 65 | 0 | 7.0 | 0.0 | 0.00 | 0.00 | 0.00 | 69 | 917.5 |
| 20260506062126 | 65 | 45 | 7.0 | 0.0 | 0.00 | 0.00 | 0.00 | 69 | 917.6 |
| 20260506062018 | 65 | 45 | 9.0 | 0.0 | 0.00 | 0.00 | 0.00 | 68 | 917.6 |
| 20260506061909 | 66 | 315 | 40.0 | 0.0 | 0.00 | 0.00 | 0.00 | 68 | 917.6 |
| 20260506061801 | 66 | 0 | 28.0 | 0.0 | 0.00 | 0.00 | 0.00 | 68 | 917.7 |
| 20260506061653 | 66 | 0 | 15.0 | 0.0 | 0.00 | 0.00 | 0.00 | 68 | 917.7 |
| 20260506061544 | 67 | 0 | 29.0 | 0.0 | 0.00 | 0.00 | 0.00 | 68 | 917.7 |
| 20260506061436 | 67 | 0 | 39.0 | 0.0 | 0.00 | 0.00 | 0.00 | 67 | 917.7 |
| 20260506061327 | 68 | 0 | 70.0 | 0.0 | 0.00 | 0.00 | 0.00 | 68 | 917.7 |
| 20260506061219 | 68 | 0 | 41.0 | 0.0 | 0.00 | 0.00 | 0.00 | 68 | 917.6 |
| 20260506061110 | 68 | 0 | 11.0 | 0.0 | 0.00 | 0.00 | 0.00 | 68 | 917.7 |
| 20260506061002 | 67 | 90 | 9.0 | 0.0 | 0.00 | 0.00 | 0.00 | 68 | 917.7 |
| 20260506060854 | 67 | 45 | 23.0 | 0.0 | 0.00 | 0.00 | 0.00 | 68 | 917.7 |
| 20260506060745 | 66 | 45 | 59.0 | 0.0 | 0.00 | 0.00 | 0.00 | 69 | 917.7 |
| 20260506060637 | 65 | 0 | 23.0 | 0.0 | 0.00 | 0.00 | 0.00 | 69 | 917.7 |
| 20260506060528 | 65 | 0 | 42.0 | 0.0 | 0.00 | 0.00 | 0.00 | 69 | 917.8 |
| 20260506060420 | 64 | 315 | 28.0 | 0.0 | 0.00 | 0.00 | 0.00 | 70 | 917.8 |
| 20260506060311 | 64 | 0 | 19.0 | 0.0 | 0.00 | 0.00 | 0.00 | 70 | 917.9 |
| 20260506060203 | 63 | 90 | 47.0 | 0.0 | 0.00 | 0.00 | 0.00 | 70 | 917.8 |
| 20260506051409 | 51 | 0 | 3.0 | 0.0 | 0.00 | 0.00 | 0.00 | 75 | 918.3 |
| 20260506051300 | 51 | 0 | 31.0 | 0.0 | 0.00 | 0.00 | 0.00 | 75 | 918.3 |
| 20260506051151 | 51 | 270 | 16.0 | 0.0 | 0.00 | 0.00 | 0.00 | 75 | 918.3 |
| 20260506051043 | 51 | 0 | 33.0 | 0.0 | 0.00 | 0.00 | 0.00 | 75 | 918.4 |
| 20260506050935 | 51 | 315 | 34.0 | 0.0 | 0.00 | 0.00 | 0.00 | 75 | 918.4 |
| 20260506050826 | 51 | 0 | 20.0 | 0.0 | 0.00 | 0.00 | 0.00 | 75 | 918.4 |
| 20260506050718 | 51 | 0 | 32.0 | 0.0 | 0.00 | 0.00 | 0.00 | 75 | 918.4 |
| 20260506050609 | 50 | 45 | 32.0 | 0.0 | 0.00 | 0.00 | 0.00 | 75 | 918.3 |
| 20260506050501 | 50 | 0 | 34.0 | 0.0 | 0.00 | 0.00 | 0.00 | 75 | 918.3 |
| 20260506050353 | 50 | 0 | 2.0 | 0.0 | 0.00 | 0.00 | 0.00 | 75 | 918.3 |
| 20260506050244 | 50 | 0 | 5.0 | 0.0 | 0.00 | 0.00 | 0.00 | 75 | 918.3 |
| 20260506050136 | 50 | 0 | 7.0 | 0.0 | 0.00 | 0.00 | 0.00 | 75 | 918.3 |
| 20260506045120 | 48 | 0 | 18.0 | 0.0 | 0.00 | 0.00 | 0.00 | 74 | 918.4 |
| 20260506044903 | 48 | 0 | 36.0 | 0.0 | 0.00 | 0.00 | 0.00 | 74 | 918.6 |
| 20260506044754 | 48 | 0 | 32.0 | 0.0 | 0.00 | 0.00 | 0.00 | 74 | 918.6 |
| 20260506044646 | 48 | 0 | 11.0 | 0.0 | 0.00 | 0.00 | 0.00 | 74 | 918.7 |
| 20260506044537 | 48 | 0 | 6.0 | 0.0 | 0.00 | 0.00 | 0.00 | 74 | 918.7 |
| 20260506044429 | 47 | 315 | 0.0 | 0.0 | 0.03 | 0.00 | 0.00 | 74 | 918.8 |
| 20260506044321 | 47 | 0 | 10.0 | 0.0 | 0.03 | 0.00 | 0.00 | 74 | 918.8 |
| 20260506044212 | 47 | 180 | 9.0 | 0.0 | 0.03 | 0.00 | 0.00 | 74 | 918.8 |
| 20260506044104 | 47 | 180 | 0.0 | 0.0 | 0.03 | 0.00 | 0.00 | 74 | 918.8 |
| 20260506043955 | 47 | 315 | 0.0 | 0.0 | 0.03 | 0.00 | 0.00 | 74 | 918.8 |
| 20260506043847 | 47 | 315 | 0.0 | 0.0 | 0.03 | 0.00 | 0.00 | 74 | 918.7 |
| 20260506043738 | 46 | 315 | 0.0 | 0.0 | 0.03 | 0.00 | 0.00 | 74 | 918.7 |
| 20260506043630 | 46 | 315 | 0.0 | 0.0 | 0.03 | 0.00 | 0.00 | 74 | 918.7 |
| 20260506043521 | 46 | 315 | 0.0 | 0.0 | 0.03 | 0.00 | 0.00 | 74 | 918.7 |
| 20260506043413 | 46 | 315 | 0.0 | 0.0 | 0.03 | 0.00 | 0.00 | 74 | 918.7 |
| 20260506043305 | 46 | 315 | 0.0 | 0.0 | 0.03 | 0.00 | 0.00 | 74 | 918.7 |
| 20260506043156 | 46 | 180 | 0.0 | 0.0 | 0.03 | 0.00 | 0.00 | 74 | 918.8 |
| 20260506042939 | 46 | 180 | 1.0 | 0.0 | 0.03 | 0.00 | 0.00 | 74 | 918.7 |
| 20260506042831 | 46 | 180 | 10.0 | 0.0 | 0.03 | 0.00 | 0.00 | 74 | 918.7 |
| 20260506042722 | 46 | 180 | 8.0 | 0.0 | 0.03 | 0.00 | 0.00 | 74 | 918.7 |
| 20260506042614 | 46 | 135 | 1.0 | 0.0 | 0.03 | 0.00 | 0.00 | 74 | 918.7 |
| 20260506042506 | 46 | 135 | 0.0 | 0.0 | 0.03 | 0.00 | 0.00 | 74 | 918.7 |
| 20260506042357 | 46 | 180 | 0.0 | 0.0 | 0.03 | 0.00 | 0.00 | 74 | 918.7 |
| 20260506042249 | 46 | 315 | 1.0 | 0.0 | 0.03 | 0.00 | 0.00 | 74 | 918.7 |
| 20260506042032 | 46 | 315 | 1.0 | 0.0 | 0.03 | 0.00 | 0.00 | 74 | 918.6 |
| 20260506041923 | 46 | 315 | 12.0 | 0.0 | 0.03 | 0.00 | 0.00 | 74 | 918.6 |
| 20260506041815 | 46 | 315 | 1.0 | 0.0 | 0.03 | 0.00 | 0.00 | 74 | 918.6 |
| 20260506041706 | 46 | 315 | 19.0 | 0.0 | 0.03 | 0.00 | 0.00 | 74 | 918.6 |
| 20260506041558 | 45 | 315 | 1.0 | 0.0 | 0.03 | 0.00 | 0.00 | 74 | 918.6 |
| 20260506041450 | 45 | 315 | 10.0 | 0.0 | 0.03 | 0.00 | 0.00 | 74 | 918.6 |
| 20260506041341 | 45 | 315 | 1.0 | 0.0 | 0.03 | 0.00 | 0.00 | 74 | 918.6 |
| 20260506041233 | 45 | 0 | 3.0 | 0.0 | 0.03 | 0.00 | 0.00 | 74 | 918.6 |
| 20260506041124 | 45 | 315 | 38.0 | 0.0 | 0.03 | 0.00 | 0.00 | 74 | 918.6 |
| 20260506041016 | 45 | 0 | 30.0 | 0.0 | 0.03 | 0.00 | 0.00 | 74 | 918.6 |
| 20260506040907 | 45 | 0 | 3.0 | 0.0 | 0.03 | 0.00 | 0.00 | 74 | 918.6 |
| 20260506040759 | 45 | 315 | 6.0 | 0.0 | 0.03 | 0.00 | 0.00 | 74 | 918.6 |
| 20260506040650 | 45 | 315 | 15.0 | 0.0 | 0.03 | 0.00 | 0.00 | 74 | 918.6 |
| 20260506040542 | 45 | 315 | 8.0 | 0.0 | 0.03 | 0.00 | 0.00 | 74 | 918.6 |
| 20260506040434 | 45 | 315 | 14.0 | 0.0 | 0.03 | 0.00 | 0.00 | 74 | 918.7 |
| 20260506040325 | 45 | 315 | 4.0 | 0.0 | 0.03 | 0.00 | 0.00 | 74 | 918.7 |
| 20260506040217 | 45 | 315 | 5.0 | 0.0 | 0.03 | 0.00 | 0.00 | 74 | 918.6 |
| 20260506040108 | 45 | 315 | 15.0 | 0.0 | 0.03 | 0.00 | 0.00 | 74 | 918.6 |
| 20260506040000 | 45 | 315 | 8.0 | 0.0 | 0.03 | 0.00 | 0.00 | 74 | 918.7 |
| 20260506035851 | 45 | 315 | 7.0 | 0.0 | 0.03 | 0.00 | 0.00 | 74 | 918.6 |
| 20260506035743 | 44 | 315 | 2.0 | 0.0 | 0.03 | 0.00 | 0.00 | 74 | 918.6 |
| 20260506035635 | 44 | 315 | 5.0 | 0.0 | 0.03 | 0.00 | 0.00 | 74 | 918.6 |
| 20260506035526 | 44 | 270 | 7.0 | 0.0 | 0.03 | 0.00 | 0.00 | 74 | 918.6 |
| 20260506035309 | 44 | 315 | 1.0 | 0.0 | 0.03 | 0.00 | 0.00 | 74 | 918.6 |
| 20260506035201 | 44 | 270 | 5.0 | 0.0 | 0.03 | 0.00 | 0.00 | 74 | 918.6 |
| 20260506035052 | 44 | 315 | 13.0 | 0.0 | 0.03 | 0.00 | 0.00 | 74 | 918.6 |
| 20260506034944 | 44 | 315 | 26.0 | 0.0 | 0.03 | 0.00 | 0.00 | 74 | 918.6 |
| 20260506034835 | 44 | 0 | 27.0 | 0.0 | 0.03 | 0.00 | 0.00 | 74 | 918.6 |
| 20260506034727 | 44 | 0 | 20.0 | 0.0 | 0.03 | 0.00 | 0.00 | 74 | 918.6 |
| 20260506034618 | 44 | 0 | 25.0 | 0.0 | 0.03 | 0.00 | 0.00 | 74 | 918.6 |
| 20260506034510 | 44 | 0 | 31.0 | 0.0 | 0.01 | 0.00 | 0.00 | 74 | 918.6 |
| 20260506034402 | 44 | 0 | 14.0 | 0.0 | 0.01 | 0.00 | 0.00 | 74 | 918.6 |
| 20260506034253 | 44 | 0 | 14.0 | 0.0 | 0.00 | 0.00 | 0.00 | 74 | 918.7 |
| 20260506034145 | 44 | 315 | 1.0 | 0.0 | 0.00 | 0.00 | 0.00 | 74 | 918.7 |
| 20260506034038 | 44 | 0 | 11.0 | 0.0 | 0.00 | 0.00 | 0.00 | 74 | 918.7 |
| 20260506033928 | 44 | 0 | 17.0 | 0.0 | 0.00 | 0.00 | 0.00 | 74 | 918.7 |
| 20260506033820 | 44 | 0 | 21.0 | 0.0 | 0.00 | 0.00 | 0.00 | 74 | 918.7 |
| 20260506033712 | 44 | 0 | 15.0 | 0.0 | 0.00 | 0.00 | 0.00 | 74 | 918.7 |
| 20260506033604 | 44 | 0 | 16.0 | 0.0 | 0.00 | 0.00 | 0.00 | 74 | 918.7 |
| 20260506033455 | 44 | 0 | 4.0 | 0.0 | 0.00 | 0.00 | 0.00 | 74 | 918.7 |
| 20260506033347 | 44 | 0 | 8.0 | 0.0 | 0.00 | 0.00 | 0.00 | 74 | 918.8 |
| 20260506033239 | 44 | 315 | 18.0 | 0.0 | 0.00 | 0.00 | 0.00 | 74 | 918.8 |
| 20260506033131 | 44 | 0 | 1.0 | 0.0 | 0.00 | 0.00 | 0.00 | 74 | 918.9 |
| 20260506033022 | 44 | 315 | 1.0 | 0.0 | 0.00 | 0.00 | 0.00 | 74 | 918.9 |
| 20260506032914 | 44 | 315 | 13.0 | 0.0 | 0.00 | 0.00 | 0.00 | 74 | 918.9 |
| 20260506032806 | 44 | 315 | 18.0 | 0.0 | 0.00 | 0.00 | 0.00 | 74 | 918.9 |
| 20260506032658 | 43 | 315 | 7.0 | 0.0 | 0.00 | 0.00 | 0.00 | 74 | 919.0 |
| 20260506032549 | 43 | 315 | 16.0 | 0.0 | 0.00 | 0.00 | 0.00 | 74 | 919.0 |
| 20260506032441 | 43 | 315 | 12.0 | 0.0 | 0.00 | 0.00 | 0.00 | 74 | 919.1 |
| 20260506032333 | 43 | 315 | 4.0 | 0.0 | 0.00 | 0.00 | 0.00 | 74 | 919.1 |
| 20260506032224 | 43 | 315 | 14.0 | 0.0 | 0.00 | 0.00 | 0.00 | 74 | 919.2 |
| 20260506032116 | 43 | 315 | 10.0 | 0.0 | 0.00 | 0.00 | 0.00 | 74 | 919.2 |
| 20260506032008 | 43 | 315 | 7.0 | 0.0 | 0.00 | 0.00 | 0.00 | 74 | 919.3 |
| 20260506031900 | 43 | 315 | 16.0 | 0.0 | 0.00 | 0.00 | 0.00 | 74 | 919.3 |
| 20260506031751 | 43 | 315 | 7.0 | 0.0 | 0.00 | 0.00 | 0.00 | 74 | 919.3 |
| 20260506031643 | 43 | 315 | 6.0 | 0.0 | 0.00 | 0.00 | 0.00 | 74 | 919.4 |
| 20260506031535 | 43 | 315 | 0.0 | 0.0 | 0.00 | 0.00 | 0.00 | 74 | 919.4 |
| 20260506031426 | 43 | 315 | 0.0 | 0.0 | 0.00 | 0.00 | 0.00 | 74 | 919.4 |
| 20260506031318 | 43 | 315 | 0.0 | 0.0 | 0.00 | 0.00 | 0.00 | 74 | 919.4 |
| 20260506031210 | 43 | 315 | 0.0 | 0.0 | 0.00 | 0.00 | 0.00 | 74 | 919.4 |
| 20260506031102 | 43 | 315 | 0.0 | 0.0 | 0.00 | 0.00 | 0.00 | 74 | 919.4 |
| 20260506030953 | 43 | 315 | 0.0 | 0.0 | 0.00 | 0.00 | 0.00 | 74 | 919.4 |
| 20260506030845 | 43 | 315 | 0.0 | 0.0 | 0.00 | 0.00 | 0.00 | 74 | 919.4 |
| 20260506030737 | 43 | 315 | 0.0 | 0.0 | 0.00 | 0.00 | 0.00 | 74 | 919.4 |
| 20260506030628 | 43 | 315 | 0.0 | 0.0 | 0.00 | 0.00 | 0.00 | 74 | 919.4 |
| 20260506030412 | 43 | 315 | 1.0 | 0.0 | 0.00 | 0.00 | 0.00 | 74 | 919.4 |
| 20260506030304 | 43 | 270 | 1.0 | 0.0 | 0.00 | 0.00 | 0.00 | 74 | 919.3 |
| 20260506030155 | 43 | 270 | 1.0 | 0.0 | 0.00 | 0.00 | 0.00 | 74 | 919.3 |
| 20260506030047 | 43 | 270 | 1.0 | 0.0 | 0.00 | 0.00 | 0.00 | 73 | 919.3 |
| 20260506025939 | 43 | 180 | 8.0 | 0.0 | 0.00 | 0.00 | 0.00 | 73 | 919.3 |
| 20260506025831 | 43 | 0 | 7.0 | 0.0 | 0.00 | 0.00 | 0.00 | 73 | 919.3 |
| 20260506025722 | 43 | 0 | 2.0 | 0.0 | 0.00 | 0.00 | 0.00 | 74 | 919.3 |
| 20260506025614 | 43 | 0 | 5.0 | 0.0 | 0.00 | 0.00 | 0.00 | 74 | 919.3 |
| 20260506025358 | 43 | 315 | 0.0 | 0.0 | 0.00 | 0.00 | 0.00 | 73 | 919.3 |
| 20260506025249 | 43 | 315 | 0.0 | 0.0 | 0.00 | 0.00 | 0.00 | 73 | 919.3 |
| 20260506025141 | 43 | 315 | 0.0 | 0.0 | 0.00 | 0.00 | 0.00 | 73 | 919.3 |
| 20260506025033 | 43 | 315 | 0.0 | 0.0 | 0.00 | 0.00 | 0.00 | 73 | 919.3 |
| 20260506024924 | 43 | 315 | 0.0 | 0.0 | 0.00 | 0.00 | 0.00 | 73 | 919.4 |
| 20260506024708 | 43 | 315 | 8.0 | 0.0 | 0.00 | 0.00 | 0.00 | 73 | 919.4 |
| 20260506024559 | 43 | 0 | 0.0 | 0.0 | 0.00 | 0.00 | 0.00 | 73 | 919.4 |
| 20260506024451 | 43 | 0 | 0.0 | 0.0 | 0.00 | 0.00 | 0.00 | 73 | 919.4 |
| 20260506024343 | 43 | 0 | 0.0 | 0.0 | 0.00 | 0.00 | 0.00 | 74 | 919.4 |
| 20260506024235 | 43 | 0 | 0.0 | 0.0 | 0.00 | 0.00 | 0.00 | 74 | 919.3 |
| 20260506024126 | 43 | 0 | 8.0 | 0.0 | 0.00 | 0.00 | 0.00 | 74 | 919.3 |
| 20260506024018 | 43 | 0 | 9.0 | 0.0 | 0.00 | 0.00 | 0.00 | 74 | 919.4 |
| 20260506023910 | 43 | 315 | 17.0 | 0.0 | 0.00 | 0.00 | 0.00 | 74 | 919.4 |
| 20260506023802 | 43 | 315 | 3.0 | 0.0 | 0.00 | 0.00 | 0.00 | 74 | 919.4 |
| 20260506023653 | 43 | 0 | 10.0 | 0.0 | 0.00 | 0.00 | 0.00 | 74 | 919.4 |
| 20260506023545 | 43 | 0 | 0.0 | 0.0 | 0.00 | 0.00 | 0.00 | 74 | 919.5 |
| 20260506023437 | 43 | 315 | 0.0 | 0.0 | 0.00 | 0.00 | 0.00 | 74 | 919.5 |
| 20260506023328 | 43 | 315 | 2.0 | 0.0 | 0.00 | 0.00 | 0.00 | 74 | 919.4 |
| 20260506023220 | 43 | 0 | 3.0 | 0.0 | 0.00 | 0.00 | 0.00 | 74 | 919.5 |
| 20260506023112 | 43 | 0 | 3.0 | 0.0 | 0.00 | 0.00 | 0.00 | 74 | 919.5 |
| 20260506023004 | 43 | 0 | 0.0 | 0.0 | 0.00 | 0.00 | 0.00 | 74 | 919.5 |
| 20260506022855 | 43 | 315 | 0.0 | 0.0 | 0.00 | 0.00 | 0.00 | 74 | 919.6 |
| 20260506022747 | 43 | 315 | 7.0 | 0.0 | 0.00 | 0.00 | 0.00 | 74 | 919.6 |
| 20260506022639 | 42 | 315 | 8.0 | 0.0 | 0.00 | 0.00 | 0.00 | 74 | 919.6 |
| 20260506022530 | 42 | 315 | 10.0 | 0.0 | 0.00 | 0.00 | 0.00 | 74 | 919.6 |
| 20260506022422 | 42 | 315 | 22.0 | 0.0 | 0.00 | 0.00 | 0.00 | 74 | 919.7 |
| 20260506022314 | 42 | 0 | 14.0 | 0.0 | 0.00 | 0.00 | 0.00 | 74 | 919.8 |
| 20260506022058 | 42 | 315 | 3.0 | 0.0 | 0.00 | 0.00 | 0.00 | 74 | 919.9 |
| 20260506021949 | 42 | 315 | 10.0 | 0.0 | 0.00 | 0.00 | 0.00 | 73 | 919.9 |
| 20260506021841 | 42 | 0 | 15.0 | 0.0 | 0.00 | 0.00 | 0.00 | 73 | 919.9 |
| 20260506021733 | 42 | 0 | 7.0 | 0.0 | 0.00 | 0.00 | 0.00 | 73 | 919.8 |
| 20260506021624 | 42 | 315 | 1.0 | 0.0 | 0.00 | 0.00 | 0.00 | 73 | 919.8 |
| 20260506021408 | 42 | 315 | 0.0 | 0.0 | 0.00 | 0.00 | 0.00 | 73 | 919.7 |
| 20260506021300 | 42 | 0 | 10.0 | 0.0 | 0.00 | 0.00 | 0.00 | 73 | 919.6 |
| 20260506021151 | 42 | 315 | 9.0 | 0.0 | 0.00 | 0.00 | 0.00 | 73 | 919.6 |
| 20260506021043 | 42 | 0 | 16.0 | 0.0 | 0.00 | 0.00 | 0.00 | 73 | 919.5 |
| 20260506020935 | 42 | 0 | 9.0 | 0.0 | 0.00 | 0.00 | 0.00 | 73 | 919.5 |
| 20260506020826 | 42 | 0 | 7.0 | 0.0 | 0.00 | 0.00 | 0.00 | 73 | 919.5 |
| 20260506020718 | 42 | 0 | 2.0 | 0.0 | 0.00 | 0.00 | 0.00 | 73 | 919.4 |
| 20260506020610 | 42 | 270 | 5.0 | 0.0 | 0.00 | 0.00 | 0.00 | 73 | 919.4 |
| 20260506020502 | 42 | 315 | 8.0 | 0.0 | 0.00 | 0.00 | 0.00 | 73 | 919.4 |
| 20260506020353 | 42 | 315 | 8.0 | 0.0 | 0.00 | 0.00 | 0.00 | 73 | 919.4 |
| 20260506020245 | 42 | 315 | 23.0 | 0.0 | 0.00 | 0.00 | 0.00 | 73 | 919.4 |
| 20260506020138 | 42 | 315 | 4.0 | 0.0 | 0.00 | 0.00 | 0.00 | 73 | 919.5 |
| 20260506020028 | 42 | 0 | 0.0 | 0.0 | 0.00 | 0.00 | 0.00 | 73 | 919.5 |
| 20260506015920 | 42 | 0 | 0.0 | 0.0 | 0.00 | 0.00 | 0.00 | 73 | 919.6 |
| 20260506015812 | 42 | 0 | 0.0 | 0.0 | 0.00 | 0.00 | 0.00 | 73 | 919.5 |
| 20260506015555 | 42 | 0 | 15.0 | 0.0 | 0.00 | 0.00 | 0.00 | 73 | 919.4 |
| 20260506015447 | 42 | 315 | 8.0 | 0.0 | 0.00 | 0.00 | 0.00 | 73 | 919.4 |
| 20260506015339 | 42 | 315 | 7.0 | 0.0 | 0.00 | 0.00 | 0.00 | 73 | 919.5 |
| 20260506015230 | 42 | 270 | 0.0 | 0.0 | 0.00 | 0.00 | 0.00 | 73 | 919.5 |
| 20260506015122 | 42 | 315 | 0.0 | 0.0 | 0.00 | 0.00 | 0.00 | 73 | 919.5 |
| 20260506015014 | 42 | 315 | 10.0 | 0.0 | 0.00 | 0.00 | 0.00 | 73 | 919.5 |
| 20260506014906 | 42 | 225 | 0.0 | 0.0 | 0.00 | 0.00 | 0.00 | 73 | 919.5 |
| 20260506014757 | 42 | 0 | 11.0 | 0.0 | 0.00 | 0.00 | 0.00 | 73 | 919.5 |
| 20260506014649 | 42 | 0 | 11.0 | 0.0 | 0.00 | 0.00 | 0.00 | 73 | 919.5 |
| 20260506014541 | 42 | 0 | 10.0 | 0.0 | 0.00 | 0.00 | 0.00 | 73 | 919.5 |
| 20260506014433 | 42 | 0 | 7.0 | 0.0 | 0.00 | 0.00 | 0.00 | 73 | 919.5 |
| 20260506014324 | 42 | 0 | 0.0 | 0.0 | 0.00 | 0.00 | 0.00 | 73 | 919.5 |
| 20260506014216 | 42 | 315 | 1.0 | 0.0 | 0.00 | 0.00 | 0.00 | 73 | 919.5 |
| 20260506014108 | 42 | 270 | 0.0 | 0.0 | 0.00 | 0.00 | 0.00 | 73 | 919.5 |
| 20260506013959 | 42 | 0 | 0.0 | 0.0 | 0.00 | 0.00 | 0.00 | 73 | 919.5 |
| 20260506013851 | 42 | 0 | 0.0 | 0.0 | 0.00 | 0.00 | 0.00 | 73 | 919.6 |
| 20260506013743 | 42 | 0 | 0.0 | 0.0 | 0.00 | 0.00 | 0.00 | 73 | 919.6 |
| 20260506013635 | 42 | 0 | 0.0 | 0.0 | 0.00 | 0.00 | 0.00 | 73 | 919.6 |
| 20260506013418 | 42 | 315 | 9.0 | 0.0 | 0.00 | 0.00 | 0.00 | 73 | 919.7 |
| 20260506013201 | 42 | 315 | 1.0 | 0.0 | 0.00 | 0.00 | 0.00 | 73 | 919.8 |
| 20260506013053 | 42 | 315 | 0.0 | 0.0 | 0.00 | 0.00 | 0.00 | 73 | 919.8 |
| 20260506012945 | 42 | 315 | 1.0 | 0.0 | 0.00 | 0.00 | 0.00 | 73 | 919.8 |
| 20260506012837 | 42 | 315 | 0.0 | 0.0 | 0.00 | 0.00 | 0.00 | 73 | 919.8 |
| 20260506012728 | 42 | 315 | 7.0 | 0.0 | 0.00 | 0.00 | 0.00 | 73 | 919.8 |
| 20260506012620 | 42 | 315 | 0.0 | 0.0 | 0.00 | 0.00 | 0.00 | 73 | 919.8 |
| 20260506012512 | 42 | 315 | 0.0 | 0.0 | 0.00 | 0.00 | 0.00 | 73 | 919.8 |
| 20260506012404 | 42 | 315 | 0.0 | 0.0 | 0.00 | 0.00 | 0.00 | 73 | 919.8 |
| 20260506012255 | 42 | 0 | 0.0 | 0.0 | 0.00 | 0.00 | 0.00 | 73 | 919.8 |
| 20260506012147 | 42 | 0 | 0.0 | 0.0 | 0.00 | 0.00 | 0.00 | 73 | 919.7 |
| 20260506012039 | 42 | 0 | 0.0 | 0.0 | 0.00 | 0.00 | 0.00 | 73 | 919.7 |
| 20260506011931 | 42 | 0 | 0.0 | 0.0 | 0.00 | 0.00 | 0.00 | 73 | 919.7 |
| 20260506011822 | 43 | 0 | 0.0 | 0.0 | 0.00 | 0.00 | 0.00 | 73 | 919.6 |
| 20260506011714 | 43 | 0 | 0.0 | 0.0 | 0.00 | 0.00 | 0.00 | 73 | 919.6 |
| 20260506011606 | 43 | 0 | 0.0 | 0.0 | 0.00 | 0.00 | 0.00 | 73 | 919.6 |
| 20260506011349 | 43 | 0 | 15.0 | 0.0 | 0.00 | 0.00 | 0.00 | 73 | 919.6 |
| 20260506011241 | 43 | 0 | 16.0 | 0.0 | 0.00 | 0.00 | 0.00 | 73 | 919.6 |
| 20260506011133 | 43 | 315 | 0.0 | 0.0 | 0.00 | 0.00 | 0.00 | 73 | 919.6 |
| 20260506011024 | 43 | 0 | 0.0 | 0.0 | 0.00 | 0.00 | 0.00 | 73 | 919.6 |
| 20260506010916 | 43 | 0 | 0.0 | 0.0 | 0.00 | 0.00 | 0.00 | 73 | 919.6 |
| 20260506010808 | 43 | 0 | 0.0 | 0.0 | 0.00 | 0.00 | 0.00 | 73 | 919.6 |
| 20260506010659 | 43 | 0 | 0.0 | 0.0 | 0.00 | 0.00 | 0.00 | 73 | 919.6 |
| 20260506010551 | 43 | 0 | 0.0 | 0.0 | 0.00 | 0.00 | 0.00 | 73 | 919.6 |
| 20260506010443 | 43 | 315 | 0.0 | 0.0 | 0.00 | 0.00 | 0.00 | 73 | 919.6 |
| 20260506010335 | 43 | 315 | 0.0 | 0.0 | 0.00 | 0.00 | 0.00 | 73 | 919.6 |
| 20260506010226 | 42 | 270 | 0.0 | 0.0 | 0.00 | 0.00 | 0.00 | 73 | 919.6 |
| 20260506010118 | 42 | 315 | 0.0 | 0.0 | 0.00 | 0.00 | 0.00 | 73 | 919.6 |
| 20260506010010 | 42 | 315 | 0.0 | 0.0 | 0.00 | 0.00 | 0.00 | 73 | 919.7 |
| 20260506005901 | 42 | 315 | 0.0 | 0.0 | 0.00 | 0.00 | 0.00 | 73 | 919.6 |
| 20260506005753 | 42 | 315 | 0.0 | 0.0 | 0.00 | 0.00 | 0.00 | 73 | 919.6 |
| 20260506005645 | 42 | 0 | 0.0 | 0.0 | 0.00 | 0.00 | 0.00 | 72 | 919.6 |
| 20260506005537 | 42 | 315 | 2.0 | 0.0 | 0.00 | 0.00 | 0.00 | 72 | 919.6 |
| 20260506005428 | 42 | 0 | 8.0 | 0.0 | 0.00 | 0.00 | 0.00 | 73 | 919.7 |
| 20260506005320 | 42 | 315 | 8.0 | 0.0 | 0.00 | 0.00 | 0.00 | 73 | 919.7 |
| 20260506005212 | 42 | 315 | 0.0 | 0.0 | 0.00 | 0.00 | 0.00 | 73 | 919.7 |
| 20260506005104 | 42 | 315 | 0.0 | 0.0 | 0.00 | 0.00 | 0.00 | 73 | 919.7 |
| 20260506004955 | 42 | 315 | 21.0 | 0.0 | 0.00 | 0.00 | 0.00 | 73 | 919.7 |
| 20260506004847 | 43 | 0 | 9.0 | 0.0 | 0.00 | 0.00 | 0.00 | 73 | 919.7 |
| 20260506004739 | 43 | 315 | 0.0 | 0.0 | 0.00 | 0.00 | 0.00 | 73 | 919.7 |
| 20260506004630 | 43 | 315 | 0.0 | 0.0 | 0.00 | 0.00 | 0.00 | 73 | 919.7 |
| 20260506004522 | 42 | 315 | 0.0 | 0.0 | 0.00 | 0.00 | 0.00 | 73 | 919.7 |
| 20260506004414 | 42 | 270 | 0.0 | 0.0 | 0.00 | 0.00 | 0.00 | 73 | 919.6 |
| 20260506004306 | 42 | 0 | 0.0 | 0.0 | 0.00 | 0.00 | 0.00 | 73 | 919.6 |
| 20260506004157 | 42 | 0 | 1.0 | 0.0 | 0.00 | 0.00 | 0.00 | 73 | 919.6 |
| 20260506004049 | 42 | 0 | 12.0 | 0.0 | 0.00 | 0.00 | 0.00 | 73 | 919.6 |
| 20260506003941 | 42 | 0 | 0.0 | 0.0 | 0.00 | 0.00 | 0.00 | 73 | 919.6 |
| 20260506003833 | 42 | 0 | 3.0 | 0.0 | 0.00 | 0.00 | 0.00 | 73 | 919.6 |
| 20260506003724 | 42 | 0 | 0.0 | 0.0 | 0.00 | 0.00 | 0.00 | 73 | 919.5 |
| 20260506003616 | 42 | 0 | 0.0 | 0.0 | 0.00 | 0.00 | 0.00 | 73 | 919.6 |
| 20260506003508 | 42 | 0 | 0.0 | 0.0 | 0.00 | 0.00 | 0.00 | 73 | 919.6 |
| 20260506003359 | 42 | 0 | 0.0 | 0.0 | 0.00 | 0.00 | 0.00 | 73 | 919.6 |
| 20260506003251 | 42 | 0 | 0.0 | 0.0 | 0.00 | 0.00 | 0.00 | 73 | 919.6 |
| 20260506003143 | 42 | 0 | 9.0 | 0.0 | 0.00 | 0.00 | 0.00 | 73 | 919.7 |
| 20260506003035 | 42 | 315 | 0.0 | 0.0 | 0.00 | 0.00 | 0.00 | 73 | 919.7 |
| 20260506002926 | 42 | 90 | 0.0 | 0.0 | 0.00 | 0.00 | 0.00 | 73 | 919.6 |
| 20260506002818 | 42 | 315 | 0.0 | 0.0 | 0.00 | 0.00 | 0.00 | 73 | 919.7 |
| 20260506002710 | 42 | 315 | 0.0 | 0.0 | 0.00 | 0.00 | 0.00 | 73 | 919.7 |
| 20260506002602 | 42 | 315 | 0.0 | 0.0 | 0.00 | 0.00 | 0.00 | 73 | 919.7 |
| 20260506002453 | 42 | 315 | 0.0 | 0.0 | 0.00 | 0.00 | 0.00 | 73 | 919.7 |
| 20260506002345 | 42 | 270 | 0.0 | 0.0 | 0.00 | 0.00 | 0.00 | 73 | 919.8 |
| 20260506002237 | 42 | 270 | 0.0 | 0.0 | 0.00 | 0.00 | 0.00 | 72 | 919.7 |
| 20260506002128 | 42 | 0 | 1.0 | 0.0 | 0.00 | 0.00 | 0.00 | 72 | 919.7 |
| 20260506002020 | 42 | 0 | 1.0 | 0.0 | 0.00 | 0.00 | 0.00 | 72 | 919.7 |
| 20260506001912 | 42 | 0 | 0.0 | 0.0 | 0.00 | 0.00 | 0.00 | 72 | 919.8 |
| 20260506001804 | 42 | 270 | 0.0 | 0.0 | 0.00 | 0.00 | 0.00 | 72 | 919.8 |
| 20260506001655 | 42 | 270 | 6.0 | 0.0 | 0.00 | 0.00 | 0.00 | 72 | 919.8 |
| 20260506001547 | 42 | 270 | 5.0 | 0.0 | 0.00 | 0.00 | 0.00 | 72 | 919.8 |
| 20260506001439 | 42 | 315 | 0.0 | 0.0 | 0.00 | 0.00 | 0.00 | 72 | 919.8 |
| 20260506001330 | 42 | 0 | 0.0 | 0.0 | 0.00 | 0.00 | 0.00 | 72 | 919.8 |
| 20260506001222 | 42 | 315 | 16.0 | 0.0 | 0.00 | 0.00 | 0.00 | 72 | 919.8 |
| 20260506001006 | 42 | 0 | 0.0 | 0.0 | 0.00 | 0.00 | 0.00 | 72 | 919.8 |
| 20260506000857 | 42 | 270 | 0.0 | 0.0 | 0.00 | 0.00 | 0.00 | 72 | 919.8 |
| 20260506000749 | 42 | 270 | 0.0 | 0.0 | 0.00 | 0.00 | 0.00 | 72 | 919.8 |
| 20260506000641 | 42 | 0 | 0.0 | 0.0 | 0.00 | 0.00 | 0.00 | 72 | 919.8 |
| 20260506000532 | 42 | 0 | 0.0 | 0.0 | 0.00 | 0.00 | 0.00 | 72 | 919.8 |
| 20260506000424 | 42 | 0 | 0.0 | 0.0 | 0.00 | 0.00 | 0.00 | 72 | 919.8 |
| 20260506000316 | 42 | 0 | 5.0 | 0.0 | 0.00 | 0.00 | 0.00 | 72 | 919.8 |
| 20260506000208 | 43 | 315 | 2.0 | 0.0 | 0.00 | 0.00 | 0.00 | 72 | 919.8 |
| 20260506000146 | 43 | 0 | 12.0 | 0.0 | 0.00 | 0.00 | 0.00 | 73 | 919.8 |
| 20260506000059 | 43 | 0 | 12.0 | 0.0 | 0.00 | 0.00 | 0.00 | 73 | 919.8 |
| 20260505235951 | 43 | 315 | 16.0 | 0.0 | 0.00 | 0.00 | 0.00 | 73 | 919.8 |
| 20260505235843 | 43 | 0 | 13.0 | 0.0 | 0.00 | 0.00 | 0.00 | 73 | 919.8 |
| 20260505235735 | 43 | 0 | 16.0 | 0.0 | 0.00 | 0.00 | 0.00 | 73 | 919.8 |
| 20260505235626 | 42 | 0 | 17.0 | 0.0 | 0.00 | 0.00 | 0.00 | 73 | 919.8 |
| 20260505235518 | 42 | 0 | 17.0 | 0.0 | 0.00 | 0.00 | 0.00 | 73 | 919.9 |
| 20260505235410 | 42 | 315 | 1.0 | 0.0 | 0.00 | 0.00 | 0.00 | 73 | 919.9 |
| 20260505235304 | 42 | 315 | 12.0 | 0.0 | 0.00 | 0.00 | 0.00 | 72 | 919.9 |
| 20260505235046 | 42 | 0 | 0.0 | 0.0 | 0.00 | 0.00 | 0.00 | 72 | 919.9 |
| 20260505234937 | 42 | 315 | 0.0 | 0.0 | 0.00 | 0.00 | 0.00 | 72 | 919.9 |
| 20260505234828 | 42 | 45 | 0.0 | 0.0 | 0.00 | 0.00 | 0.00 | 72 | 919.9 |
| 20260505234720 | 42 | 315 | 1.0 | 0.0 | 0.00 | 0.00 | 0.00 | 72 | 920.0 |
| 20260505234612 | 42 | 315 | 0.0 | 0.0 | 0.00 | 0.00 | 0.00 | 72 | 920.0 |
| 20260505234504 | 42 | 315 | 0.0 | 0.0 | 0.00 | 0.00 | 0.00 | 72 | 920.0 |
| 20260505234355 | 42 | 315 | 0.0 | 0.0 | 0.00 | 0.00 | 0.00 | 72 | 920.0 |
| 20260505234247 | 42 | 315 | 2.0 | 0.0 | 0.00 | 0.00 | 0.00 | 72 | 919.9 |
| 20260505234139 | 42 | 315 | 2.0 | 0.0 | 0.00 | 0.00 | 0.00 | 72 | 920.0 |
| 20260505234030 | 42 | 315 | 2.0 | 0.0 | 0.00 | 0.00 | 0.00 | 72 | 920.1 |
| 20260505233922 | 42 | 0 | 0.0 | 0.0 | 0.00 | 0.00 | 0.00 | 72 | 920.0 |
| 20260505233814 | 42 | 0 | 0.0 | 0.0 | 0.00 | 0.00 | 0.00 | 72 | 920.1 |
| 20260505233706 | 42 | 0 | 0.0 | 0.0 | 0.00 | 0.00 | 0.00 | 72 | 920.1 |
| 20260505233557 | 42 | 0 | 0.0 | 0.0 | 0.00 | 0.00 | 0.00 | 72 | 920.0 |
| 20260505233449 | 42 | 0 | 0.0 | 0.0 | 0.00 | 0.00 | 0.00 | 72 | 920.0 |
| 20260505233341 | 43 | 0 | 0.0 | 0.0 | 0.00 | 0.00 | 0.00 | 72 | 920.0 |
| 20260505233233 | 43 | 0 | 0.0 | 0.0 | 0.00 | 0.00 | 0.00 | 72 | 920.0 |
| 20260505233124 | 43 | 0 | 0.0 | 0.0 | 0.00 | 0.00 | 0.00 | 72 | 920.0 |
| 20260505233016 | 43 | 0 | 0.0 | 0.0 | 0.00 | 0.00 | 0.00 | 72 | 920.0 |
| 20260505232908 | 43 | 0 | 0.0 | 0.0 | 0.00 | 0.00 | 0.00 | 72 | 920.0 |
| 20260505232759 | 43 | 0 | 0.0 | 0.0 | 0.00 | 0.00 | 0.00 | 72 | 920.0 |
| 20260505232651 | 43 | 0 | 3.0 | 0.0 | 0.00 | 0.00 | 0.00 | 72 | 920.0 |
| 20260505232543 | 43 | 315 | 8.0 | 0.0 | 0.00 | 0.00 | 0.00 | 72 | 920.0 |
| 20260505232435 | 43 | 0 | 0.0 | 0.0 | 0.00 | 0.00 | 0.00 | 72 | 920.0 |
| 20260505232326 | 43 | 0 | 0.0 | 0.0 | 0.00 | 0.00 | 0.00 | 72 | 920.0 |
| 20260505232218 | 43 | 0 | 0.0 | 0.0 | 0.00 | 0.00 | 0.00 | 72 | 920.0 |
| 20260505232110 | 43 | 0 | 0.0 | 0.0 | 0.00 | 0.00 | 0.00 | 71 | 920.0 |
| 20260505232001 | 43 | 315 | 0.0 | 0.0 | 0.00 | 0.00 | 0.00 | 71 | 920.0 |
| 20260505231853 | 43 | 315 | 0.0 | 0.0 | 0.00 | 0.00 | 0.00 | 71 | 920.1 |
| 20260505231745 | 43 | 315 | 0.0 | 0.0 | 0.00 | 0.00 | 0.00 | 71 | 920.1 |
| 20260505231637 | 43 | 315 | 5.0 | 0.0 | 0.00 | 0.00 | 0.00 | 71 | 920.0 |
| 20260505231528 | 43 | 0 | 10.0 | 0.0 | 0.00 | 0.00 | 0.00 | 71 | 920.0 |
| 20260505231420 | 43 | 315 | 0.0 | 0.0 | 0.00 | 0.00 | 0.00 | 71 | 920.0 |
| 20260505231312 | 43 | 315 | 0.0 | 0.0 | 0.00 | 0.00 | 0.00 | 71 | 920.0 |
| 20260505231203 | 43 | 315 | 6.0 | 0.0 | 0.00 | 0.00 | 0.00 | 71 | 920.0 |
| 20260505231055 | 43 | 315 | 3.0 | 0.0 | 0.00 | 0.00 | 0.00 | 71 | 920.0 |
| 20260505230947 | 44 | 315 | 2.0 | 0.0 | 0.00 | 0.00 | 0.00 | 71 | 920.0 |
| 20260505230839 | 44 | 315 | 9.0 | 0.0 | 0.00 | 0.00 | 0.00 | 71 | 920.1 |
| 20260505230730 | 44 | 315 | 24.0 | 0.0 | 0.00 | 0.00 | 0.00 | 72 | 920.0 |
| 20260505230622 | 44 | 0 | 8.0 | 0.0 | 0.00 | 0.00 | 0.00 | 72 | 920.0 |
| 20260505230514 | 44 | 0 | 0.0 | 0.0 | 0.00 | 0.00 | 0.00 | 72 | 920.1 |
| 20260505230406 | 44 | 315 | 0.0 | 0.0 | 0.00 | 0.00 | 0.00 | 72 | 920.1 |
| 20260505230257 | 44 | 0 | 0.0 | 0.0 | 0.00 | 0.00 | 0.00 | 72 | 920.1 |
| 20260505230149 | 44 | 0 | 0.0 | 0.0 | 0.00 | 0.00 | 0.00 | 72 | 920.0 |
| 20260505230041 | 44 | 0 | 0.0 | 0.0 | 0.00 | 0.00 | 0.00 | 72 | 920.0 |
| 20260505225932 | 44 | 180 | 0.0 | 0.0 | 0.00 | 0.00 | 0.00 | 72 | 920.0 |
| 20260505225824 | 44 | 180 | 0.0 | 0.0 | 0.00 | 0.00 | 0.00 | 72 | 920.0 |
| 20260505225716 | 44 | 0 | 9.0 | 0.0 | 0.00 | 0.00 | 0.00 | 72 | 920.1 |
| 20260505225459 | 44 | 0 | 1.0 | 0.0 | 0.00 | 0.00 | 0.00 | 72 | 920.1 |
| 20260505225351 | 44 | 315 | 5.0 | 0.0 | 0.00 | 0.00 | 0.00 | 72 | 920.0 |
| 20260505225243 | 44 | 315 | 1.0 | 0.0 | 0.00 | 0.00 | 0.00 | 72 | 920.0 |
| 20260505225135 | 44 | 315 | 27.0 | 0.0 | 0.00 | 0.00 | 0.00 | 72 | 920.0 |
| 20260505225026 | 45 | 315 | 1.0 | 0.0 | 0.00 | 0.00 | 0.00 | 72 | 920.0 |
| 20260505224918 | 45 | 315 | 0.0 | 0.0 | 0.00 | 0.00 | 0.00 | 72 | 920.0 |
| 20260505224810 | 45 | 270 | 8.0 | 0.0 | 0.00 | 0.00 | 0.00 | 72 | 920.0 |
| 20260505224701 | 45 | 315 | 0.0 | 0.0 | 0.00 | 0.00 | 0.00 | 72 | 920.0 |
| 20260505224553 | 45 | 0 | 3.0 | 0.0 | 0.00 | 0.00 | 0.00 | 72 | 920.0 |
| 20260505224445 | 45 | 0 | 0.0 | 0.0 | 0.00 | 0.00 | 0.00 | 72 | 919.9 |
| 20260505224337 | 45 | 315 | 0.0 | 0.0 | 0.00 | 0.00 | 0.00 | 72 | 919.9 |
| 20260505224228 | 45 | 315 | 0.0 | 0.0 | 0.00 | 0.00 | 0.00 | 72 | 919.9 |
| 20260505224120 | 45 | 315 | 0.0 | 0.0 | 0.00 | 0.00 | 0.00 | 72 | 919.9 |
| 20260505224012 | 45 | 315 | 7.0 | 0.0 | 0.00 | 0.00 | 0.00 | 72 | 919.8 |
| 20260505223904 | 45 | 0 | 0.0 | 0.0 | 0.00 | 0.00 | 0.00 | 72 | 919.9 |
| 20260505223755 | 45 | 225 | 0.0 | 0.0 | 0.00 | 0.00 | 0.00 | 72 | 919.9 |
| 20260505223647 | 45 | 0 | 7.0 | 0.0 | 0.00 | 0.00 | 0.00 | 72 | 919.8 |
| 20260505223430 | 45 | 0 | 0.0 | 0.0 | 0.00 | 0.00 | 0.00 | 72 | 919.8 |
| 20260505223322 | 45 | 225 | 8.0 | 0.0 | 0.00 | 0.00 | 0.00 | 72 | 919.9 |
| 20260505223214 | 45 | 225 | 0.0 | 0.0 | 0.00 | 0.00 | 0.00 | 72 | 919.8 |
| 20260505223106 | 46 | 0 | 7.0 | 0.0 | 0.00 | 0.00 | 0.00 | 72 | 919.8 |
| 20260505222957 | 46 | 0 | 10.0 | 0.0 | 0.00 | 0.00 | 0.00 | 73 | 919.8 |
| 20260505222849 | 46 | 270 | 6.0 | 0.0 | 0.00 | 0.00 | 0.00 | 73 | 919.8 |
| 20260505222741 | 46 | 315 | 8.0 | 0.0 | 0.00 | 0.00 | 0.00 | 73 | 919.8 |
| 20260505222632 | 46 | 315 | 9.0 | 0.0 | 0.00 | 0.00 | 0.00 | 73 | 919.8 |
| 20260505222524 | 46 | 315 | 2.0 | 0.0 | 0.00 | 0.00 | 0.00 | 73 | 919.8 |
| 20260505222416 | 45 | 315 | 9.0 | 0.0 | 0.00 | 0.00 | 0.00 | 73 | 919.9 |
| 20260505222308 | 45 | 0 | 29.0 | 0.0 | 0.00 | 0.00 | 0.00 | 73 | 919.8 |
| 20260505222159 | 45 | 0 | 11.0 | 0.0 | 0.00 | 0.00 | 0.00 | 73 | 919.8 |
| 20260505222051 | 45 | 315 | 8.0 | 0.0 | 0.00 | 0.00 | 0.00 | 73 | 919.8 |
| 20260505221943 | 45 | 315 | 21.0 | 0.0 | 0.00 | 0.00 | 0.00 | 73 | 919.8 |
| 20260505221834 | 45 | 315 | 10.0 | 0.0 | 0.00 | 0.00 | 0.00 | 73 | 919.8 |
| 20260505221726 | 45 | 315 | 19.0 | 0.0 | 0.00 | 0.00 | 0.00 | 73 | 919.8 |
| 20260505221510 | 45 | 315 | 1.0 | 0.0 | 0.00 | 0.00 | 0.00 | 73 | 919.8 |
| 20260505221401 | 45 | 315 | 8.0 | 0.0 | 0.00 | 0.00 | 0.00 | 73 | 919.8 |
| 20260505221253 | 45 | 315 | 1.0 | 0.0 | 0.00 | 0.00 | 0.00 | 73 | 919.8 |
| 20260505221145 | 45 | 315 | 7.0 | 0.0 | 0.00 | 0.00 | 0.00 | 73 | 919.8 |
| 20260505221037 | 45 | 315 | 0.0 | 0.0 | 0.00 | 0.00 | 0.00 | 73 | 919.8 |
| 20260505220928 | 45 | 315 | 2.0 | 0.0 | 0.00 | 0.00 | 0.00 | 72 | 919.8 |
| 20260505220820 | 45 | 270 | 5.0 | 0.0 | 0.00 | 0.00 | 0.00 | 72 | 919.8 |
| 20260505220712 | 45 | 270 | 0.0 | 0.0 | 0.00 | 0.00 | 0.00 | 72 | 919.7 |
| 20260505220603 | 45 | 315 | 0.0 | 0.0 | 0.00 | 0.00 | 0.00 | 72 | 919.7 |
| 20260505220455 | 45 | 315 | 0.0 | 0.0 | 0.00 | 0.00 | 0.00 | 72 | 919.7 |
| 20260505220347 | 45 | 315 | 7.0 | 0.0 | 0.00 | 0.00 | 0.00 | 72 | 919.7 |
| 20260505220239 | 44 | 315 | 7.0 | 0.0 | 0.00 | 0.00 | 0.00 | 72 | 919.7 |
| 20260505220130 | 44 | 270 | 6.0 | 0.0 | 0.00 | 0.00 | 0.00 | 72 | 919.7 |
| 20260505220022 | 44 | 315 | 0.0 | 0.0 | 0.00 | 0.00 | 0.00 | 72 | 919.7 |
| 20260505215914 | 44 | 315 | 0.0 | 0.0 | 0.00 | 0.00 | 0.00 | 72 | 919.6 |
| 20260505215806 | 44 | 315 | 6.0 | 0.0 | 0.00 | 0.00 | 0.00 | 72 | 919.7 |
| 20260505215657 | 44 | 315 | 7.0 | 0.0 | 0.00 | 0.00 | 0.00 | 72 | 919.7 |
| 20260505215549 | 44 | 315 | 1.0 | 0.0 | 0.00 | 0.00 | 0.00 | 72 | 919.7 |
| 20260505215441 | 44 | 315 | 6.0 | 0.0 | 0.00 | 0.00 | 0.00 | 72 | 919.7 |
| 20260505215332 | 44 | 315 | 0.0 | 0.0 | 0.00 | 0.00 | 0.00 | 72 | 919.7 |
| 20260505215224 | 44 | 315 | 0.0 | 0.0 | 0.00 | 0.00 | 0.00 | 72 | 919.7 |
| 20260505215116 | 44 | 315 | 1.0 | 0.0 | 0.00 | 0.00 | 0.00 | 72 | 919.7 |
| 20260505215008 | 44 | 315 | 3.0 | 0.0 | 0.00 | 0.00 | 0.00 | 72 | 919.7 |
| 20260505214643 | 44 | 315 | 1.0 | 0.0 | 0.00 | 0.00 | 0.00 | 72 | 919.7 |
| 20260505214534 | 44 | 315 | 7.0 | 0.0 | 0.00 | 0.00 | 0.00 | 72 | 919.6 |
| 20260505214426 | 44 | 0 | 0.0 | 0.0 | 0.00 | 0.00 | 0.00 | 72 | 919.7 |
| 20260505214318 | 44 | 315 | 7.0 | 0.0 | 0.00 | 0.00 | 0.00 | 72 | 919.6 |
| 20260505214101 | 44 | 315 | 1.0 | 0.0 | 0.00 | 0.00 | 0.00 | 72 | 919.6 |
| 20260505213953 | 44 | 315 | 9.0 | 0.0 | 0.00 | 0.00 | 0.00 | 71 | 919.7 |
| 20260505213845 | 44 | 315 | 45.0 | 0.0 | 0.00 | 0.00 | 0.00 | 71 | 919.6 |
| 20260505213737 | 44 | 0 | 0.0 | 0.0 | 0.00 | 0.00 | 0.00 | 72 | 919.6 |
| 20260505213628 | 44 | 315 | 15.0 | 0.0 | 0.00 | 0.00 | 0.00 | 72 | 919.7 |
| 20260505213520 | 45 | 0 | 4.0 | 0.0 | 0.00 | 0.00 | 0.00 | 72 | 919.6 |
| 20260505213412 | 45 | 315 | 10.0 | 0.0 | 0.00 | 0.00 | 0.00 | 72 | 919.6 |
| 20260505213155 | 45 | 0 | 0.0 | 0.0 | 0.00 | 0.00 | 0.00 | 72 | 919.6 |
| 20260505213047 | 45 | 0 | 2.0 | 0.0 | 0.00 | 0.00 | 0.00 | 72 | 919.6 |
| 20260505212939 | 45 | 270 | 1.0 | 0.0 | 0.00 | 0.00 | 0.00 | 72 | 919.6 |
| 20260505212830 | 45 | 315 | 0.0 | 0.0 | 0.00 | 0.00 | 0.00 | 72 | 919.6 |
| 20260505212722 | 45 | 0 | 7.0 | 0.0 | 0.00 | 0.00 | 0.00 | 72 | 919.6 |
| 20260505212614 | 45 | 0 | 0.0 | 0.0 | 0.00 | 0.00 | 0.00 | 72 | 919.5 |
| 20260505212506 | 45 | 315 | 0.0 | 0.0 | 0.00 | 0.00 | 0.00 | 72 | 919.5 |
| 20260505212357 | 45 | 315 | 8.0 | 0.0 | 0.00 | 0.00 | 0.00 | 72 | 919.5 |
| 20260505212249 | 45 | 0 | 0.0 | 0.0 | 0.00 | 0.00 | 0.00 | 72 | 919.5 |
| 20260505212141 | 45 | 315 | 0.0 | 0.0 | 0.00 | 0.00 | 0.00 | 72 | 919.5 |
| 20260505212032 | 45 | 315 | 0.0 | 0.0 | 0.00 | 0.00 | 0.00 | 71 | 919.5 |
| 20260505211924 | 45 | 315 | 7.0 | 0.0 | 0.00 | 0.00 | 0.00 | 71 | 919.5 |
| 20260505211816 | 45 | 315 | 23.0 | 0.0 | 0.00 | 0.00 | 0.00 | 71 | 919.5 |
| 20260505211708 | 45 | 0 | 0.0 | 0.0 | 0.00 | 0.00 | 0.00 | 72 | 919.5 |
| 20260505211559 | 45 | 0 | 1.0 | 0.0 | 0.00 | 0.00 | 0.00 | 72 | 919.4 |
| 20260505211451 | 45 | 0 | 9.0 | 0.0 | 0.00 | 0.00 | 0.00 | 71 | 919.5 |
| 20260505211235 | 45 | 315 | 8.0 | 0.0 | 0.00 | 0.00 | 0.00 | 71 | 919.5 |
| 20260505211126 | 45 | 315 | 0.0 | 0.0 | 0.00 | 0.00 | 0.00 | 71 | 919.5 |
| 20260505211018 | 45 | 315 | 0.0 | 0.0 | 0.00 | 0.00 | 0.00 | 72 | 919.5 |
| 20260505210910 | 45 | 315 | 7.0 | 0.0 | 0.00 | 0.00 | 0.00 | 72 | 919.4 |
| 20260505210801 | 45 | 315 | 0.0 | 0.0 | 0.00 | 0.00 | 0.00 | 72 | 919.4 |
| 20260505210653 | 45 | 315 | 9.0 | 0.0 | 0.00 | 0.00 | 0.00 | 72 | 919.4 |
| 20260505210545 | 45 | 0 | 2.0 | 0.0 | 0.00 | 0.00 | 0.00 | 72 | 919.5 |
| 20260505210437 | 46 | 315 | 0.0 | 0.0 | 0.00 | 0.00 | 0.00 | 72 | 919.4 |
| 20260505210328 | 46 | 315 | 0.0 | 0.0 | 0.00 | 0.00 | 0.00 | 72 | 919.4 |
| 20260505210220 | 46 | 315 | 1.0 | 0.0 | 0.00 | 0.00 | 0.00 | 72 | 919.4 |
| 20260505210112 | 46 | 0 | 8.0 | 0.0 | 0.00 | 0.00 | 0.00 | 72 | 919.4 |
| 20260505210004 | 46 | 315 | 6.0 | 0.0 | 0.00 | 0.00 | 0.00 | 72 | 919.4 |
| 20260505205855 | 46 | 315 | 1.0 | 0.0 | 0.00 | 0.00 | 0.00 | 72 | 919.4 |
| 20260505205639 | 46 | 315 | 8.0 | 0.0 | 0.00 | 0.00 | 0.00 | 72 | 919.4 |
| 20260505205530 | 46 | 0 | 2.0 | 0.0 | 0.00 | 0.00 | 0.00 | 72 | 919.4 |
| 20260505205422 | 46 | 0 | 0.0 | 0.0 | 0.00 | 0.00 | 0.00 | 72 | 919.4 |
| 20260505205314 | 46 | 0 | 1.0 | 0.0 | 0.00 | 0.00 | 0.00 | 72 | 919.3 |
| 20260505205206 | 46 | 315 | 13.0 | 0.0 | 0.00 | 0.00 | 0.00 | 72 | 919.3 |
| 20260505205057 | 46 | 315 | 0.0 | 0.0 | 0.00 | 0.00 | 0.00 | 72 | 919.4 |
| 20260505204949 | 46 | 315 | 0.0 | 0.0 | 0.00 | 0.00 | 0.00 | 72 | 919.3 |
| 20260505204841 | 46 | 315 | 0.0 | 0.0 | 0.00 | 0.00 | 0.00 | 72 | 919.3 |
| 20260505204732 | 46 | 315 | 8.0 | 0.0 | 0.00 | 0.00 | 0.00 | 72 | 919.3 |
| 20260505204624 | 46 | 0 | 2.0 | 0.0 | 0.00 | 0.00 | 0.00 | 72 | 919.3 |
| 20260505204516 | 46 | 315 | 13.0 | 0.0 | 0.00 | 0.00 | 0.00 | 72 | 919.3 |
| 20260505204408 | 46 | 0 | 17.0 | 0.0 | 0.00 | 0.00 | 0.00 | 72 | 919.3 |
| 20260505204259 | 46 | 315 | 4.0 | 0.0 | 0.00 | 0.00 | 0.00 | 72 | 919.2 |
| 20260505204151 | 46 | 315 | 7.0 | 0.0 | 0.00 | 0.00 | 0.00 | 72 | 919.2 |
| 20260505204043 | 46 | 315 | 9.0 | 0.0 | 0.00 | 0.00 | 0.00 | 72 | 919.2 |
| 20260505203934 | 46 | 0 | 1.0 | 0.0 | 0.00 | 0.00 | 0.00 | 72 | 919.1 |
| 20260505203826 | 46 | 315 | 2.0 | 0.0 | 0.00 | 0.00 | 0.00 | 72 | 919.1 |
| 20260505203718 | 46 | 270 | 5.0 | 0.0 | 0.00 | 0.00 | 0.00 | 72 | 919.1 |
| 20260505203610 | 46 | 270 | 1.0 | 0.0 | 0.00 | 0.00 | 0.00 | 72 | 919.1 |
| 20260505203501 | 46 | 315 | 16.0 | 0.0 | 0.00 | 0.00 | 0.00 | 72 | 919.1 |
| 20260505203353 | 46 | 315 | 9.0 | 0.0 | 0.00 | 0.00 | 0.00 | 72 | 919.1 |
| 20260505203245 | 46 | 315 | 9.0 | 0.0 | 0.00 | 0.00 | 0.00 | 72 | 919.1 |
| 20260505203137 | 46 | 0 | 0.0 | 0.0 | 0.00 | 0.00 | 0.00 | 72 | 919.2 |
| 20260505202920 | 46 | 270 | 1.0 | 0.0 | 0.00 | 0.00 | 0.00 | 71 | 919.1 |
| 20260505202812 | 46 | 270 | 0.0 | 0.0 | 0.00 | 0.00 | 0.00 | 71 | 919.0 |
| 20260505202703 | 46 | 0 | 0.0 | 0.0 | 0.00 | 0.00 | 0.00 | 71 | 919.0 |
| 20260505202555 | 46 | 0 | 0.0 | 0.0 | 0.00 | 0.00 | 0.00 | 71 | 919.0 |
| 20260505202447 | 46 | 315 | 0.0 | 0.0 | 0.00 | 0.00 | 0.00 | 71 | 919.0 |
| 20260505202339 | 46 | 315 | 0.0 | 0.0 | 0.00 | 0.00 | 0.00 | 71 | 919.0 |
| 20260505202230 | 46 | 315 | 3.0 | 0.0 | 0.00 | 0.00 | 0.00 | 71 | 918.9 |
| 20260505202122 | 46 | 315 | 32.0 | 0.0 | 0.00 | 0.00 | 0.00 | 71 | 919.0 |
| 20260505202014 | 46 | 315 | 2.0 | 0.0 | 0.00 | 0.00 | 0.00 | 72 | 919.0 |
| 20260505201906 | 47 | 315 | 1.0 | 0.0 | 0.00 | 0.00 | 0.00 | 72 | 919.0 |
| 20260505201757 | 47 | 315 | 22.0 | 0.0 | 0.00 | 0.00 | 0.00 | 72 | 919.0 |
| 20260505201649 | 47 | 315 | 1.0 | 0.0 | 0.00 | 0.00 | 0.00 | 72 | 919.0 |
| 20260505201541 | 47 | 0 | 0.0 | 0.0 | 0.00 | 0.00 | 0.00 | 72 | 919.0 |
| 20260505201432 | 47 | 315 | 1.0 | 0.0 | 0.00 | 0.00 | 0.00 | 72 | 919.0 |
| 20260505201324 | 47 | 315 | 9.0 | 0.0 | 0.00 | 0.00 | 0.00 | 72 | 919.0 |
| 20260505201216 | 47 | 0 | 14.0 | 0.0 | 0.00 | 0.00 | 0.00 | 72 | 918.9 |
| 20260505201108 | 47 | 315 | 1.0 | 0.0 | 0.00 | 0.00 | 0.00 | 72 | 918.9 |
| 20260505200959 | 47 | 315 | 5.0 | 0.0 | 0.00 | 0.00 | 0.00 | 72 | 918.9 |
| 20260505200851 | 47 | 315 | 0.0 | 0.0 | 0.00 | 0.00 | 0.00 | 72 | 918.9 |
| 20260505200743 | 47 | 315 | 0.0 | 0.0 | 0.00 | 0.00 | 0.00 | 72 | 918.9 |
| 20260505200634 | 47 | 315 | 0.0 | 0.0 | 0.00 | 0.00 | 0.00 | 72 | 918.9 |
| 20260505200526 | 47 | 315 | 2.0 | 0.0 | 0.00 | 0.00 | 0.00 | 72 | 918.9 |
| 20260505200418 | 47 | 315 | 3.0 | 0.0 | 0.00 | 0.00 | 0.00 | 71 | 918.9 |
| 20260505200310 | 47 | 315 | 3.0 | 0.0 | 0.00 | 0.00 | 0.00 | 72 | 918.9 |
| 20260505200201 | 47 | 0 | 14.0 | 0.0 | 0.00 | 0.00 | 0.00 | 72 | 918.9 |
| 20260505200053 | 47 | 0 | 0.0 | 0.0 | 0.00 | 0.00 | 0.00 | 72 | 918.9 |
| 20260505195945 | 47 | 315 | 0.0 | 0.0 | 0.00 | 0.00 | 0.00 | 72 | 918.9 |
| 20260505195837 | 47 | 0 | 0.0 | 0.0 | 0.00 | 0.00 | 0.00 | 71 | 918.9 |
| 20260505195728 | 47 | 0 | 11.0 | 0.0 | 0.00 | 0.00 | 0.00 | 71 | 918.9 |
| 20260505195620 | 47 | 0 | 1.0 | 0.0 | 0.00 | 0.00 | 0.00 | 71 | 918.9 |
| 20260505195512 | 47 | 0 | 1.0 | 0.0 | 0.00 | 0.00 | 0.00 | 71 | 918.8 |
| 20260505195403 | 47 | 270 | 3.0 | 0.0 | 0.00 | 0.00 | 0.00 | 71 | 918.8 |
| 20260505195255 | 47 | 315 | 2.0 | 0.0 | 0.00 | 0.00 | 0.00 | 71 | 918.8 |
| 20260505195147 | 48 | 315 | 0.0 | 0.0 | 0.00 | 0.00 | 0.00 | 71 | 918.7 |
| 20260505195039 | 48 | 315 | 0.0 | 0.0 | 0.00 | 0.00 | 0.00 | 71 | 918.7 |
| 20260505194930 | 48 | 315 | 0.0 | 0.0 | 0.00 | 0.00 | 0.00 | 71 | 918.7 |
| 20260505194822 | 48 | 315 | 7.0 | 0.0 | 0.00 | 0.00 | 0.00 | 71 | 918.7 |
| 20260505194714 | 48 | 315 | 0.0 | 0.0 | 0.00 | 0.00 | 0.00 | 71 | 918.7 |
| 20260505194606 | 48 | 315 | 1.0 | 0.0 | 0.00 | 0.00 | 0.00 | 71 | 918.7 |
| 20260505194457 | 48 | 0 | 0.0 | 0.0 | 0.00 | 0.00 | 0.00 | 71 | 918.7 |
| 20260505194349 | 48 | 315 | 0.0 | 0.0 | 0.00 | 0.00 | 0.00 | 71 | 918.7 |
| 20260505194241 | 48 | 315 | 8.0 | 0.0 | 0.00 | 0.00 | 0.00 | 71 | 918.7 |
| 20260505194024 | 48 | 315 | 9.0 | 0.0 | 0.00 | 0.00 | 0.00 | 71 | 918.6 |
| 20260505193916 | 48 | 315 | 8.0 | 0.0 | 0.00 | 0.00 | 0.00 | 71 | 918.6 |
| 20260505193808 | 48 | 315 | 11.0 | 0.0 | 0.00 | 0.00 | 0.00 | 71 | 918.5 |
| 20260505193659 | 49 | 315 | 0.0 | 0.0 | 0.00 | 0.00 | 0.00 | 71 | 918.5 |
| 20260505193551 | 49 | 315 | 8.0 | 0.0 | 0.00 | 0.00 | 0.00 | 71 | 918.5 |
| 20260505193443 | 49 | 0 | 1.0 | 0.0 | 0.00 | 0.00 | 0.00 | 71 | 918.4 |
| 20260505193334 | 49 | 315 | 13.0 | 0.0 | 0.00 | 0.00 | 0.00 | 71 | 918.4 |
| 20260505193226 | 49 | 0 | 3.0 | 0.0 | 0.00 | 0.00 | 0.00 | 71 | 918.4 |
| 20260505193118 | 49 | 270 | 3.0 | 0.0 | 0.00 | 0.00 | 0.00 | 71 | 918.4 |
| 20260505193010 | 49 | 315 | 0.0 | 0.0 | 0.00 | 0.00 | 0.00 | 71 | 918.4 |
| 20260505192901 | 49 | 315 | 0.0 | 0.0 | 0.00 | 0.00 | 0.00 | 71 | 918.4 |
| 20260505192753 | 49 | 315 | 0.0 | 0.0 | 0.00 | 0.00 | 0.00 | 71 | 918.4 |
| 20260505192645 | 49 | 315 | 1.0 | 0.0 | 0.00 | 0.00 | 0.00 | 71 | 918.3 |
| 20260505192537 | 49 | 0 | 1.0 | 0.0 | 0.00 | 0.00 | 0.00 | 71 | 918.3 |
| 20260505192428 | 49 | 0 | 1.0 | 0.0 | 0.00 | 0.00 | 0.00 | 71 | 918.3 |
| 20260505192320 | 49 | 315 | 1.0 | 0.0 | 0.00 | 0.00 | 0.00 | 70 | 918.4 |
| 20260505192212 | 49 | 315 | 1.0 | 0.0 | 0.00 | 0.00 | 0.00 | 70 | 918.4 |
| 20260505192103 | 50 | 315 | 0.0 | 0.0 | 0.00 | 0.00 | 0.00 | 70 | 918.3 |
| 20260505191955 | 50 | 45 | 0.0 | 0.0 | 0.00 | 0.00 | 0.00 | 70 | 918.3 |
| 20260505191847 | 50 | 315 | 0.0 | 0.0 | 0.00 | 0.00 | 0.00 | 70 | 918.3 |
| 20260505191739 | 50 | 315 | 0.0 | 0.0 | 0.00 | 0.00 | 0.00 | 70 | 918.3 |
| 20260505191630 | 50 | 315 | 21.0 | 0.0 | 0.00 | 0.00 | 0.00 | 70 | 918.3 |
| 20260505191522 | 51 | 0 | 16.0 | 0.0 | 0.00 | 0.00 | 0.00 | 70 | 918.2 |
| 20260505191414 | 51 | 0 | 0.0 | 0.0 | 0.00 | 0.00 | 0.00 | 70 | 918.2 |
| 20260505191305 | 51 | 0 | 0.0 | 0.0 | 0.00 | 0.00 | 0.00 | 70 | 918.2 |
| 20260505191157 | 51 | 315 | 0.0 | 0.0 | 0.00 | 0.00 | 0.00 | 70 | 918.2 |
| 20260505191050 | 51 | 315 | 6.0 | 0.0 | 0.00 | 0.00 | 0.00 | 70 | 918.2 |
| 20260505190941 | 51 | 315 | 0.0 | 0.0 | 0.00 | 0.00 | 0.00 | 70 | 918.1 |
| 20260505190832 | 51 | 315 | 0.0 | 0.0 | 0.00 | 0.00 | 0.00 | 70 | 918.1 |
| 20260505190724 | 51 | 315 | 0.0 | 0.0 | 0.00 | 0.00 | 0.00 | 71 | 918.1 |
| 20260505190616 | 52 | 315 | 1.0 | 0.0 | 0.00 | 0.00 | 0.00 | 71 | 918.1 |
| 20260505190508 | 52 | 315 | 8.0 | 0.0 | 0.00 | 0.00 | 0.00 | 71 | 918.1 |
| 20260505190359 | 52 | 315 | 1.0 | 0.0 | 0.00 | 0.00 | 0.00 | 71 | 918.1 |
| 20260505190251 | 52 | 0 | 2.0 | 0.0 | 0.00 | 0.00 | 0.00 | 71 | 918.1 |
| 20260505190143 | 52 | 315 | 0.0 | 0.0 | 0.00 | 0.00 | 0.00 | 71 | 918.1 |
| 20260505190034 | 52 | 0 | 0.0 | 0.0 | 0.00 | 0.00 | 0.00 | 71 | 918.1 |
| 20260505185926 | 53 | 0 | 0.0 | 0.0 | 0.00 | 0.00 | 0.00 | 71 | 918.0 |
| 20260505185818 | 53 | 315 | 1.0 | 0.0 | 0.00 | 0.00 | 0.00 | 72 | 918.0 |
| 20260505185710 | 53 | 270 | 1.0 | 0.0 | 0.00 | 0.00 | 0.00 | 72 | 918.0 |
| 20260505185601 | 53 | 315 | 8.0 | 0.0 | 0.00 | 0.00 | 0.00 | 72 | 918.0 |
| 20260505185453 | 53 | 225 | 6.0 | 0.0 | 0.00 | 0.00 | 0.00 | 71 | 918.0 |
| 20260505185345 | 53 | 45 | 6.0 | 0.0 | 0.00 | 0.00 | 0.00 | 71 | 917.9 |
| 20260505185237 | 53 | 180 | 9.0 | 0.0 | 0.00 | 0.00 | 0.00 | 71 | 917.9 |
| 20260505185128 | 53 | 270 | 2.0 | 0.0 | 0.00 | 0.00 | 0.00 | 71 | 917.9 |
| 20260505185020 | 53 | 270 | 0.0 | 0.0 | 0.00 | 0.00 | 0.00 | 71 | 917.9 |
| 20260505184912 | 53 | 315 | 0.0 | 0.0 | 0.00 | 0.00 | 0.00 | 71 | 917.9 |
| 20260505184803 | 54 | 315 | 0.0 | 0.0 | 0.00 | 0.00 | 0.00 | 71 | 917.9 |
| 20260505184655 | 54 | 225 | 0.0 | 0.0 | 0.00 | 0.00 | 0.00 | 71 | 917.9 |
| 20260505184547 | 54 | 0 | 0.0 | 0.0 | 0.00 | 0.00 | 0.00 | 71 | 917.9 |
| 20260505184439 | 54 | 315 | 0.0 | 0.0 | 0.00 | 0.00 | 0.00 | 71 | 917.9 |
| 20260505184330 | 54 | 45 | 13.0 | 0.0 | 0.00 | 0.00 | 0.00 | 71 | 917.9 |
| 20260505184222 | 54 | 225 | 0.0 | 0.0 | 0.00 | 0.00 | 0.00 | 71 | 917.9 |
| 20260505184114 | 55 | 0 | 0.0 | 0.0 | 0.00 | 0.00 | 0.00 | 71 | 917.9 |
| 20260505184005 | 55 | 0 | 3.0 | 0.0 | 0.00 | 0.00 | 0.00 | 71 | 917.9 |
| 20260505183857 | 55 | 225 | 0.0 | 0.0 | 0.00 | 0.00 | 0.00 | 71 | 917.8 |
| 20260505183749 | 55 | 315 | 0.0 | 0.0 | 0.00 | 0.00 | 0.00 | 71 | 917.8 |
| 20260505183641 | 55 | 45 | 1.0 | 0.0 | 0.00 | 0.00 | 0.00 | 71 | 917.8 |
| 20260505183532 | 55 | 270 | 0.0 | 0.0 | 0.00 | 0.00 | 0.00 | 71 | 917.7 |
| 20260505183424 | 56 | 0 | 1.0 | 0.0 | 0.00 | 0.00 | 0.00 | 71 | 917.7 |
| 20260505183316 | 56 | 45 | 12.0 | 0.0 | 0.00 | 0.00 | 0.00 | 71 | 917.6 |
| 20260505183208 | 56 | 270 | 0.0 | 0.0 | 0.00 | 0.00 | 0.00 | 71 | 917.6 |
| 20260505182951 | 56 | 315 | 0.0 | 0.0 | 0.00 | 0.00 | 0.00 | 72 | 917.6 |
| 20260505182843 | 57 | 0 | 0.0 | 0.0 | 0.00 | 0.00 | 0.00 | 72 | 917.7 |
| 20260505182734 | 57 | 180 | 12.0 | 0.0 | 0.00 | 0.00 | 0.00 | 72 | 917.6 |
| 20260505182626 | 57 | 135 | 10.0 | 0.0 | 0.00 | 0.00 | 0.00 | 71 | 917.6 |
| 20260505182517 | 57 | 180 | 9.0 | 0.0 | 0.00 | 0.00 | 0.00 | 71 | 917.6 |
| 20260505182409 | 57 | 225 | 1.0 | 0.0 | 0.00 | 0.00 | 0.00 | 71 | 917.6 |
| 20260505182301 | 57 | 315 | 1.0 | 0.0 | 0.00 | 0.00 | 0.00 | 70 | 917.6 |
| 20260505182152 | 57 | 270 | 0.0 | 0.0 | 0.00 | 0.00 | 0.00 | 71 | 917.6 |
| 20260505182043 | 58 | 315 | 1.0 | 0.0 | 0.00 | 0.00 | 0.00 | 71 | 917.6 |
| 20260505181935 | 58 | 270 | 7.0 | 0.0 | 0.00 | 0.00 | 0.00 | 71 | 917.5 |
| 20260505181827 | 58 | 180 | 1.0 | 0.0 | 0.00 | 0.00 | 0.00 | 71 | 917.5 |
| 20260505181718 | 58 | 225 | 7.0 | 0.0 | 0.00 | 0.00 | 0.00 | 71 | 917.5 |
| 20260505181610 | 59 | 135 | 0.0 | 0.0 | 0.00 | 0.00 | 0.00 | 71 | 917.5 |
| 20260505181501 | 59 | 90 | 1.0 | 0.0 | 0.00 | 0.00 | 0.00 | 71 | 917.5 |
| 20260505181353 | 59 | 135 | 8.0 | 0.0 | 0.00 | 0.00 | 0.00 | 71 | 917.5 |
| 20260505181244 | 59 | 225 | 3.0 | 0.0 | 0.00 | 0.00 | 0.00 | 71 | 917.5 |
| 20260505181136 | 60 | 135 | 15.0 | 0.0 | 0.00 | 0.00 | 0.00 | 71 | 917.5 |
| 20260505181027 | 60 | 135 | 4.0 | 0.0 | 0.00 | 0.00 | 0.00 | 71 | 917.4 |
| 20260505180919 | 60 | 135 | 7.0 | 0.0 | 0.00 | 0.00 | 0.00 | 72 | 917.4 |
| 20260505180811 | 60 | 90 | 17.0 | 0.0 | 0.00 | 0.00 | 0.00 | 72 | 917.4 |
| 20260505180702 | 61 | 180 | 12.0 | 0.0 | 0.00 | 0.00 | 0.00 | 72 | 917.4 |
| 20260505180554 | 61 | 225 | 8.0 | 0.0 | 0.00 | 0.00 | 0.00 | 72 | 917.3 |
| 20260505180445 | 61 | 225 | 17.0 | 0.0 | 0.00 | 0.00 | 0.00 | 72 | 917.3 |
| 20260505180337 | 61 | 135 | 7.0 | 0.0 | 0.00 | 0.00 | 0.00 | 72 | 917.4 |
| 20260505180229 | 61 | 135 | 18.0 | 0.0 | 0.00 | 0.00 | 0.00 | 72 | 917.3 |
| 20260505180120 | 61 | 180 | 40.0 | 0.0 | 0.00 | 0.00 | 0.00 | 72 | 917.3 |
| 20260505180011 | 62 | 180 | 10.0 | 0.0 | 0.00 | 0.00 | 0.00 | 73 | 917.3 |
| 20260505175903 | 62 | 135 | 36.0 | 0.0 | 0.00 | 0.00 | 0.00 | 73 | 917.3 |
| 20260505175755 | 62 | 180 | 16.0 | 0.0 | 0.00 | 0.00 | 0.00 | 73 | 917.2 |
| 20260505175646 | 62 | 180 | 20.0 | 0.0 | 0.00 | 0.00 | 0.00 | 73 | 917.2 |
| 20260505175538 | 62 | 225 | 1.0 | 0.0 | 0.00 | 0.00 | 0.00 | 73 | 917.3 |
| 20260505175429 | 62 | 270 | 10.0 | 0.0 | 0.00 | 0.00 | 0.00 | 73 | 917.2 |
| 20260505175321 | 62 | 180 | 32.0 | 0.0 | 0.00 | 0.00 | 0.00 | 73 | 917.2 |
| 20260505175212 | 62 | 180 | 15.0 | 0.0 | 0.00 | 0.00 | 0.00 | 73 | 917.2 |
| 20260505175104 | 62 | 90 | 50.0 | 0.0 | 0.00 | 0.00 | 0.00 | 73 | 917.2 |
| 20260505174956 | 62 | 180 | 17.0 | 0.0 | 0.00 | 0.00 | 0.00 | 73 | 917.2 |
| 20260505174847 | 62 | 135 | 48.0 | 0.0 | 0.00 | 0.00 | 0.00 | 73 | 917.2 |
| 20260505174739 | 62 | 90 | 20.0 | 0.0 | 0.00 | 0.00 | 0.00 | 73 | 917.2 |
| 20260505174630 | 63 | 0 | 17.0 | 0.0 | 0.00 | 0.00 | 0.00 | 73 | 917.2 |
| 20260505174522 | 63 | 90 | 4.0 | 0.0 | 0.00 | 0.00 | 0.00 | 73 | 917.2 |
| 20260505174413 | 63 | 90 | 26.0 | 0.0 | 0.00 | 0.00 | 0.00 | 73 | 917.3 |
| 20260505174305 | 63 | 180 | 48.0 | 0.0 | 0.00 | 0.00 | 0.00 | 73 | 917.3 |
| 20260505174156 | 63 | 90 | 38.0 | 0.0 | 0.00 | 0.00 | 0.00 | 72 | 917.3 |
| 20260505174048 | 63 | 180 | 23.0 | 0.0 | 0.00 | 0.00 | 0.00 | 72 | 917.2 |
| 20260505173940 | 63 | 180 | 35.0 | 0.0 | 0.00 | 0.00 | 0.00 | 72 | 917.2 |
| 20260505173831 | 63 | 225 | 35.0 | 0.0 | 0.00 | 0.00 | 0.00 | 72 | 917.3 |
| 20260505173723 | 63 | 180 | 15.0 | 0.0 | 0.00 | 0.00 | 0.00 | 72 | 917.2 |
| 20260505173614 | 63 | 180 | 24.0 | 0.0 | 0.00 | 0.00 | 0.00 | 72 | 917.2 |
| 20260505173506 | 63 | 180 | 21.0 | 0.0 | 0.00 | 0.00 | 0.00 | 72 | 917.1 |
| 20260505173357 | 63 | 180 | 5.0 | 0.0 | 0.00 | 0.00 | 0.00 | 72 | 917.2 |
| 20260505173249 | 63 | 0 | 9.0 | 0.0 | 0.00 | 0.00 | 0.00 | 72 | 917.2 |
| 20260505173141 | 63 | 315 | 20.0 | 0.0 | 0.00 | 0.00 | 0.00 | 72 | 917.2 |
| 20260505173032 | 63 | 135 | 42.0 | 0.0 | 0.00 | 0.00 | 0.00 | 72 | 917.3 |
| 20260505172924 | 63 | 180 | 37.0 | 0.0 | 0.00 | 0.00 | 0.00 | 72 | 917.2 |
| 20260505172815 | 64 | 225 | 7.0 | 0.0 | 0.00 | 0.00 | 0.00 | 71 | 917.1 |
| 20260505172707 | 64 | 180 | 7.0 | 0.0 | 0.00 | 0.00 | 0.00 | 71 | 917.2 |
| 20260505172558 | 64 | 225 | 21.0 | 0.0 | 0.00 | 0.00 | 0.00 | 71 | 917.2 |
| 20260505172450 | 64 | 180 | 23.0 | 0.0 | 0.00 | 0.00 | 0.00 | 71 | 917.1 |
| 20260505172341 | 64 | 180 | 22.0 | 0.0 | 0.00 | 0.00 | 0.00 | 71 | 917.2 |
| 20260505172233 | 64 | 180 | 12.0 | 0.0 | 0.00 | 0.00 | 0.00 | 71 | 917.2 |
| 20260505172125 | 64 | 135 | 19.0 | 0.0 | 0.00 | 0.00 | 0.00 | 71 | 917.2 |
| 20260505172016 | 65 | 180 | 34.0 | 0.0 | 0.00 | 0.00 | 0.00 | 71 | 917.2 |
| 20260505171908 | 65 | 225 | 33.0 | 0.0 | 0.00 | 0.00 | 0.00 | 71 | 917.2 |
| 20260505171759 | 65 | 90 | 22.0 | 0.0 | 0.00 | 0.00 | 0.00 | 71 | 917.2 |
| 20260505171651 | 65 | 225 | 47.0 | 0.0 | 0.00 | 0.00 | 0.00 | 71 | 917.2 |
| 20260505171542 | 65 | 180 | 39.0 | 0.0 | 0.00 | 0.00 | 0.00 | 71 | 917.2 |
| 20260505171434 | 65 | 90 | 48.0 | 0.0 | 0.00 | 0.00 | 0.00 | 70 | 917.2 |
| 20260505171325 | 65 | 180 | 15.0 | 0.0 | 0.00 | 0.00 | 0.00 | 70 | 917.2 |
| 20260505171217 | 65 | 180 | 51.0 | 0.0 | 0.00 | 0.00 | 0.00 | 70 | 917.2 |
| 20260505171109 | 65 | 180 | 37.0 | 0.0 | 0.00 | 0.00 | 0.00 | 70 | 917.2 |
| 20260505171000 | 66 | 90 | 40.0 | 0.0 | 0.00 | 0.00 | 0.00 | 70 | 917.2 |
| 20260505170852 | 66 | 135 | 44.0 | 0.0 | 0.00 | 0.00 | 0.00 | 69 | 917.2 |
| 20260505170743 | 66 | 180 | 54.0 | 0.0 | 0.00 | 0.00 | 0.00 | 69 | 917.1 |
| 20260505170635 | 66 | 180 | 25.0 | 0.0 | 0.00 | 0.00 | 0.00 | 69 | 917.1 |
| 20260505170526 | 67 | 225 | 15.0 | 0.0 | 0.00 | 0.00 | 0.00 | 68 | 917.1 |
| 20260505170418 | 67 | 225 | 15.0 | 0.0 | 0.00 | 0.00 | 0.00 | 68 | 917.1 |
| 20260505170309 | 67 | 135 | 27.0 | 0.0 | 0.00 | 0.00 | 0.00 | 68 | 917.1 |
| 20260505170201 | 68 | 0 | 61.0 | 0.0 | 0.00 | 0.00 | 0.00 | 67 | 917.0 |
| 20260505170053 | 68 | 225 | 40.0 | 0.0 | 0.00 | 0.00 | 0.00 | 66 | 917.1 |
| 20260505165944 | 69 | 225 | 26.0 | 0.0 | 0.00 | 0.00 | 0.00 | 66 | 917.1 |
| 20260505165836 | 69 | 225 | 41.0 | 0.0 | 0.00 | 0.00 | 0.00 | 65 | 917.0 |
| 20260505165727 | 70 | 225 | 21.0 | 0.0 | 0.00 | 0.00 | 0.00 | 65 | 917.0 |
| 20260505165619 | 70 | 180 | 30.0 | 0.0 | 0.00 | 0.00 | 0.00 | 64 | 917.0 |
| 20260505165510 | 71 | 225 | 17.0 | 0.0 | 0.00 | 0.00 | 0.00 | 63 | 917.0 |
| 20260505165402 | 72 | 135 | 19.0 | 0.0 | 0.00 | 0.00 | 0.00 | 63 | 917.0 |
| 20260505165253 | 73 | 225 | 19.0 | 0.0 | 0.00 | 0.00 | 0.00 | 62 | 917.0 |
| 20260505165145 | 74 | 180 | 40.0 | 0.0 | 0.00 | 0.00 | 0.00 | 61 | 917.0 |
| 20260505165037 | 75 | 180 | 43.0 | 0.0 | 0.00 | 0.00 | 0.00 | 60 | 917.0 |
| 20260505164928 | 76 | 180 | 70.0 | 0.0 | 0.00 | 0.00 | 0.00 | 59 | 916.9 |
| 20260505164820 | 78 | 225 | 29.0 | 0.0 | 0.00 | 0.00 | 0.00 | 58 | 917.0 |
| 20260505164711 | 79 | 225 | 14.0 | 0.0 | 0.00 | 0.00 | 0.00 | 57 | 916.9 |
| 20260505164603 | 81 | 225 | 16.0 | 0.0 | 0.00 | 0.00 | 0.00 | 56 | 916.9 |
| 20260505164454 | 83 | 90 | 15.0 | 0.0 | 0.00 | 0.00 | 0.00 | 54 | 916.9 |
| 20260505164346 | 85 | 90 | 31.0 | 0.0 | 0.00 | 0.00 | 0.00 | 53 | 916.8 |
| 20260505164237 | 88 | 225 | 49.0 | 0.0 | 0.00 | 0.00 | 0.00 | 51 | 916.8 |
| 20260505164129 | 91 | 225 | 35.0 | 0.0 | 0.00 | 0.00 | 0.00 | 50 | 916.9 |
| 20260505164021 | 95 | 225 | 23.0 | 0.0 | 0.00 | 0.00 | 0.00 | 48 | 916.8 |
| 20260505163912 | 10 | 45 | 26.0 | 0.0 | 0.00 | 0.00 | 0.00 | 46 | 916.8 |
| 20260505163804 | 102 | 225 | 35.0 | 0.0 | 0.00 | 0.00 | 0.00 | 45 | 916.8 |
| 20260505163655 | 102 | 180 | 35.0 | 0.0 | 0.00 | 0.00 | 0.00 | 45 | 916.8 |
| 20260505163547 | 102 | 180 | 32.0 | 0.0 | 0.00 | 0.00 | 0.00 | 46 | 916.7 |
| 20260505163438 | 102 | 90 | 9.0 | 0.0 | 0.00 | 0.00 | 0.00 | 46 | 916.7 |
| 20260505163330 | 102 | 180 | 60.0 | 0.0 | 0.00 | 0.00 | 0.00 | 45 | 916.7 |
| 20260505163222 | 102 | 90 | 45.0 | 0.0 | 0.00 | 0.00 | 0.00 | 45 | 916.7 |
| 20260505163113 | 102 | 180 | 31.0 | 0.0 | 0.00 | 0.00 | 0.00 | 46 | 916.7 |
| 20260505163005 | 102 | 180 | 0.0 | 0.0 | 0.00 | 0.00 | 0.00 | 47 | 916.8 |
| 20260505162856 | 102 | 0 | 26.0 | 0.0 | 0.00 | 0.00 | 0.00 | 47 | 916.8 |
| 20260505162748 | 101 | 225 | 10.0 | 0.0 | 0.00 | 0.00 | 0.00 | 46 | 916.8 |
| 20260505162639 | 101 | 45 | 32.0 | 0.0 | 0.00 | 0.00 | 0.00 | 46 | 916.9 |
| 20260505162531 | 101 | 180 | 45.0 | 0.0 | 0.00 | 0.00 | 0.00 | 47 | 916.8 |
| 20260505162422 | 100 | 180 | 26.0 | 0.0 | 0.00 | 0.00 | 0.00 | 47 | 916.8 |
| 20260505162314 | 10 | 225 | 24.0 | 0.0 | 0.00 | 0.00 | 0.00 | 47 | 916.9 |
| 20260505162206 | 99 | 180 | 26.0 | 0.0 | 0.00 | 0.00 | 0.00 | 48 | 916.9 |
| 20260505162057 | 99 | 180 | 23.0 | 0.0 | 0.00 | 0.00 | 0.00 | 48 | 916.9 |
| 20260505161949 | 98 | 90 | 31.0 | 0.0 | 0.00 | 0.00 | 0.00 | 49 | 916.9 |
| 20260505161840 | 97 | 180 | 38.0 | 0.0 | 0.00 | 0.00 | 0.00 | 50 | 917.0 |
| 20260505161732 | 96 | 225 | 15.0 | 0.0 | 0.00 | 0.00 | 0.00 | 51 | 917.0 |
| 20260505161623 | 94 | 180 | 18.0 | 0.0 | 0.00 | 0.00 | 0.00 | 52 | 917.0 |
| 20260505161515 | 91 | 225 | 36.0 | 0.0 | 0.00 | 0.00 | 0.00 | 54 | 917.1 |
| 20260505161407 | 88 | 180 | 43.0 | 0.0 | 0.00 | 0.00 | 0.00 | 56 | 917.2 |
| 20260505161258 | 84 | 180 | 27.0 | 0.0 | 0.00 | 0.00 | 0.00 | 58 | 917.3 |
| 20260505161150 | 81 | 180 | 26.0 | 0.0 | 0.00 | 0.00 | 0.00 | 60 | 917.3 |
| 20260505161041 | 82 | 225 | 40.0 | 0.0 | 0.00 | 0.00 | 0.00 | 59 | 917.3 |
| 20260505160933 | 84 | 180 | 34.0 | 0.0 | 0.00 | 0.00 | 0.00 | 59 | 917.4 |
| 20260505160824 | 85 | 180 | 25.0 | 0.0 | 0.00 | 0.00 | 0.00 | 58 | 917.4 |
| 20260505160716 | 87 | 225 | 27.0 | 0.0 | 0.00 | 0.00 | 0.00 | 57 | 917.3 |
| 20260505160607 | 87 | 225 | 27.0 | 0.0 | 0.00 | 0.00 | 0.00 | 57 | 917.4 |
| 20260505160459 | 87 | 180 | 25.0 | 0.0 | 0.00 | 0.00 | 0.00 | 57 | 917.4 |
| 20260505160351 | 89 | 180 | 27.0 | 0.0 | 0.00 | 0.00 | 0.00 | 57 | 917.4 |
| 20260505160242 | 90 | 225 | 20.0 | 0.0 | 0.00 | 0.00 | 0.00 | 57 | 917.4 |
| 20260505160134 | 92 | 225 | 24.0 | 0.0 | 0.00 | 0.00 | 0.00 | 56 | 917.4 |
| 20260505153303 | 73 | 225 | 14.0 | 0.0 | 0.00 | 0.00 | 0.00 | 68 | 917.9 |
| 20260505153154 | 73 | 225 | 24.0 | 0.0 | 0.00 | 0.00 | 0.00 | 68 | 917.8 |
| 20260505153046 | 74 | 180 | 12.0 | 0.0 | 0.00 | 0.00 | 0.00 | 68 | 917.8 |
| 20260505152937 | 74 | 180 | 0.0 | 0.0 | 0.00 | 0.00 | 0.00 | 68 | 917.8 |
| 20260505152829 | 74 | 315 | 3.0 | 0.0 | 0.00 | 0.00 | 0.00 | 68 | 917.7 |
| 20260505152721 | 74 | 270 | 0.0 | 0.0 | 0.00 | 0.00 | 0.00 | 67 | 917.8 |
| 20260505152612 | 75 | 135 | 7.0 | 0.0 | 0.00 | 0.00 | 0.00 | 67 | 917.8 |
| 20260505152504 | 75 | 180 | 49.0 | 0.0 | 0.00 | 0.00 | 0.00 | 66 | 917.8 |
| 20260505152355 | 75 | 225 | 20.0 | 0.0 | 0.00 | 0.00 | 0.00 | 66 | 917.9 |
| 20260505152247 | 76 | 135 | 25.0 | 0.0 | 0.00 | 0.00 | 0.00 | 66 | 917.9 |
| 20260505152138 | 76 | 180 | 30.0 | 0.0 | 0.00 | 0.00 | 0.00 | 66 | 917.8 |
| 20260505152030 | 77 | 180 | 31.0 | 0.0 | 0.00 | 0.00 | 0.00 | 66 | 917.8 |
| 20260505151921 | 78 | 225 | 19.0 | 0.0 | 0.00 | 0.00 | 0.00 | 66 | 917.7 |
| 20260505151813 | 78 | 180 | 17.0 | 0.0 | 0.00 | 0.00 | 0.00 | 66 | 917.8 |
| 20260505151705 | 79 | 180 | 20.0 | 0.0 | 0.00 | 0.00 | 0.00 | 67 | 917.8 |
| 20260505151556 | 78 | 135 | 21.0 | 0.0 | 0.00 | 0.00 | 0.00 | 67 | 917.8 |
| 20260505151448 | 75 | 180 | 30.0 | 0.0 | 0.00 | 0.00 | 0.00 | 68 | 917.9 |
| 20260505151339 | 73 | 180 | 24.0 | 0.0 | 0.00 | 0.00 | 0.00 | 68 | 917.9 |
| 20260505151231 | 71 | 90 | 28.0 | 0.0 | 0.00 | 0.00 | 0.00 | 68 | 917.9 |
| 20260505151122 | 71 | 225 | 26.0 | 0.0 | 0.00 | 0.00 | 0.00 | 69 | 917.9 |
| 20260505151014 | 70 | 180 | 25.0 | 0.0 | 0.00 | 0.00 | 0.00 | 68 | 917.8 |
| 20260505150905 | 70 | 135 | 40.0 | 0.0 | 0.00 | 0.00 | 0.00 | 68 | 917.8 |
| 20260505150757 | 70 | 180 | 17.0 | 0.0 | 0.00 | 0.00 | 0.00 | 68 | 917.9 |
| 20260505150649 | 70 | 225 | 25.0 | 0.0 | 0.00 | 0.00 | 0.00 | 68 | 917.9 |
| 20260505150540 | 70 | 90 | 20.0 | 0.0 | 0.00 | 0.00 | 0.00 | 68 | 917.8 |
| 20260505150432 | 70 | 135 | 26.0 | 0.0 | 0.00 | 0.00 | 0.00 | 68 | 917.8 |
| 20260505150323 | 70 | 180 | 28.0 | 0.0 | 0.00 | 0.00 | 0.00 | 68 | 917.8 |
| 20260505150215 | 70 | 225 | 14.0 | 0.0 | 0.00 | 0.00 | 0.00 | 69 | 917.8 |
| 20260505150107 | 70 | 180 | 49.0 | 0.0 | 0.00 | 0.00 | 0.00 | 69 | 917.9 |
| 20260505140621 | 75 | 225 | 26.0 | 0.0 | 0.00 | 0.00 | 0.00 | 68 | 917.4 |
| 20260505140513 | 75 | 90 | 30.0 | 0.0 | 0.00 | 0.00 | 0.00 | 68 | 917.4 |
| 20260505140404 | 75 | 225 | 22.0 | 0.0 | 0.00 | 0.00 | 0.00 | 68 | 917.4 |
| 20260505140256 | 75 | 180 | 48.0 | 0.0 | 0.00 | 0.00 | 0.00 | 68 | 917.4 |
| 20260505140147 | 75 | 90 | 60.0 | 0.0 | 0.00 | 0.00 | 0.00 | 68 | 917.4 |
| 20260505130228 | 89 | 180 | 75.0 | 0.0 | 0.00 | 0.00 | 0.00 | 57 | 917.4 |
| 20260505130120 | 89 | 90 | 37.0 | 0.0 | 0.00 | 0.00 | 0.00 | 58 | 917.3 |
| 20260505124956 | 80 | 180 | 58.0 | 0.0 | 0.00 | 0.00 | 0.00 | 64 | 917.4 |
| 20260505124847 | 79 | 225 | 38.0 | 0.0 | 0.00 | 0.00 | 0.00 | 65 | 917.4 |
| 20260505124739 | 79 | 180 | 24.0 | 0.0 | 0.00 | 0.00 | 0.00 | 65 | 917.4 |
| 20260505124630 | 78 | 180 | 46.0 | 0.0 | 0.00 | 0.00 | 0.00 | 65 | 917.4 |
| 20260505124522 | 78 | 180 | 46.0 | 0.0 | 0.00 | 0.00 | 0.00 | 65 | 917.5 |
| 20260505124413 | 77 | 180 | 55.0 | 0.0 | 0.00 | 0.00 | 0.00 | 65 | 917.5 |
| 20260505124305 | 77 | 90 | 33.0 | 0.0 | 0.00 | 0.00 | 0.00 | 66 | 917.5 |
| 20260505124157 | 77 | 225 | 47.0 | 0.0 | 0.00 | 0.00 | 0.00 | 66 | 917.6 |
| 20260505124048 | 76 | 225 | 60.0 | 0.0 | 0.00 | 0.00 | 0.00 | 65 | 917.6 |
| 20260505123940 | 76 | 180 | 47.0 | 0.0 | 0.00 | 0.00 | 0.00 | 65 | 917.6 |
| 20260505123831 | 76 | 225 | 46.0 | 0.0 | 0.00 | 0.00 | 0.00 | 65 | 917.5 |
| 20260505123723 | 76 | 180 | 40.0 | 0.0 | 0.00 | 0.00 | 0.00 | 65 | 917.6 |
| 20260505123614 | 77 | 180 | 104.0 | 0.0 | 0.00 | 0.00 | 0.00 | 65 | 917.6 |
| 20260505123506 | 77 | 180 | 46.0 | 0.0 | 0.00 | 0.00 | 0.00 | 65 | 917.6 |
| 20260505123357 | 77 | 180 | 80.0 | 0.0 | 0.00 | 0.00 | 0.00 | 65 | 917.5 |
| 20260505123249 | 77 | 180 | 45.0 | 0.0 | 0.00 | 0.00 | 0.00 | 65 | 917.5 |
| 20260505123141 | 77 | 180 | 47.0 | 0.0 | 0.00 | 0.00 | 0.00 | 65 | 917.5 |
| 20260505123032 | 78 | 135 | 29.0 | 0.0 | 0.00 | 0.00 | 0.00 | 64 | 917.5 |
| 20260505122924 | 78 | 180 | 10.0 | 0.0 | 0.00 | 0.00 | 0.00 | 64 | 917.5 |
| 20260505122815 | 79 | 315 | 33.0 | 0.0 | 0.00 | 0.00 | 0.00 | 63 | 917.5 |
| 20260505122707 | 80 | 180 | 48.0 | 0.0 | 0.00 | 0.00 | 0.00 | 63 | 917.5 |
| 20260505122558 | 80 | 180 | 47.0 | 0.0 | 0.00 | 0.00 | 0.00 | 63 | 917.5 |
| 20260505122450 | 81 | 180 | 23.0 | 0.0 | 0.00 | 0.00 | 0.00 | 63 | 917.3 |
| 20260505122341 | 82 | 225 | 18.0 | 0.0 | 0.00 | 0.00 | 0.00 | 63 | 917.3 |
| 20260505122233 | 83 | 90 | 6.0 | 0.0 | 0.00 | 0.00 | 0.00 | 62 | 917.3 |
| 20260505122125 | 84 | 180 | 10.0 | 0.0 | 0.00 | 0.00 | 0.00 | 61 | 917.3 |
| 20260505122016 | 85 | 225 | 56.0 | 0.0 | 0.00 | 0.00 | 0.00 | 60 | 917.3 |
| 20260505121908 | 86 | 90 | 47.0 | 0.0 | 0.00 | 0.00 | 0.00 | 60 | 917.2 |
| 20260505121759 | 88 | 180 | 80.0 | 0.0 | 0.00 | 0.00 | 0.00 | 59 | 917.3 |
| 20260505121651 | 89 | 180 | 53.0 | 0.0 | 0.00 | 0.00 | 0.00 | 59 | 917.2 |
| 20260505121542 | 90 | 135 | 14.0 | 0.0 | 0.00 | 0.00 | 0.00 | 58 | 917.2 |
| 20260505121434 | 91 | 135 | 19.0 | 0.0 | 0.00 | 0.00 | 0.00 | 58 | 917.2 |
| 20260505121325 | 92 | 135 | 29.0 | 0.0 | 0.00 | 0.00 | 0.00 | 57 | 917.2 |
| 20260505121217 | 93 | 90 | 62.0 | 0.0 | 0.00 | 0.00 | 0.00 | 57 | 917.2 |
| 20260505121109 | 94 | 315 | 26.0 | 0.0 | 0.00 | 0.00 | 0.00 | 57 | 917.1 |
| 20260505121000 | 93 | 270 | 52.0 | 0.0 | 0.00 | 0.00 | 0.00 | 58 | 917.2 |
| 20260505120852 | 91 | 180 | 25.0 | 0.0 | 0.00 | 0.00 | 0.00 | 59 | 917.3 |
| 20260505120743 | 89 | 90 | 74.0 | 0.0 | 0.00 | 0.00 | 0.00 | 60 | 917.3 |
| 20260505120635 | 88 | 90 | 111.0 | 0.0 | 0.00 | 0.00 | 0.00 | 61 | 917.1 |
| 20260505120526 | 88 | 225 | 42.0 | 0.0 | 0.00 | 0.00 | 0.00 | 62 | 917.1 |
| 20260505120418 | 87 | 135 | 42.0 | 0.0 | 0.00 | 0.00 | 0.00 | 63 | 917.2 |
| 20260505120310 | 87 | 90 | 1.0 | 0.0 | 0.00 | 0.00 | 0.00 | 63 | 917.3 |
| 20260505120201 | 86 | 0 | 11.0 | 0.0 | 0.00 | 0.00 | 0.00 | 63 | 917.3 |
| 20260505120053 | 86 | 315 | 31.0 | 0.0 | 0.00 | 0.00 | 0.00 | 63 | 917.2 |
| 20260505115944 | 85 | 90 | 19.0 | 0.0 | 0.00 | 0.00 | 0.00 | 63 | 917.3 |
| 20260505115836 | 85 | 0 | 66.0 | 0.0 | 0.00 | 0.00 | 0.00 | 63 | 917.3 |
| 20260505115727 | 85 | 45 | 19.0 | 0.0 | 0.00 | 0.00 | 0.00 | 63 | 917.2 |
| 20260505115619 | 85 | 0 | 15.0 | 0.0 | 0.00 | 0.00 | 0.00 | 64 | 917.3 |
| 20260505115510 | 85 | 180 | 9.0 | 0.0 | 0.00 | 0.00 | 0.00 | 64 | 917.3 |
| 20260505115402 | 85 | 225 | 17.0 | 0.0 | 0.00 | 0.00 | 0.00 | 63 | 917.2 |
| 20260505115254 | 86 | 45 | 3.0 | 0.0 | 0.00 | 0.00 | 0.00 | 63 | 917.3 |
| 20260505115145 | 86 | 270 | 24.0 | 0.0 | 0.00 | 0.00 | 0.00 | 62 | 917.2 |
| 20260505115037 | 86 | 180 | 40.0 | 0.0 | 0.00 | 0.00 | 0.00 | 61 | 917.2 |
| 20260505114928 | 87 | 180 | 16.0 | 0.0 | 0.00 | 0.00 | 0.00 | 61 | 917.2 |
| 20260505114820 | 87 | 225 | 59.0 | 0.0 | 0.00 | 0.00 | 0.00 | 61 | 917.2 |
| 20260505114711 | 88 | 180 | 2.0 | 0.0 | 0.00 | 0.00 | 0.00 | 61 | 917.3 |
| 20260505114603 | 89 | 180 | 33.0 | 0.0 | 0.00 | 0.00 | 0.00 | 60 | 917.3 |
| 20260505114454 | 89 | 135 | 2.0 | 0.0 | 0.00 | 0.00 | 0.00 | 60 | 917.3 |
| 20260505114346 | 90 | 0 | 17.0 | 0.0 | 0.00 | 0.00 | 0.00 | 59 | 917.3 |
| 20260505114238 | 91 | 270 | 23.0 | 0.0 | 0.00 | 0.00 | 0.00 | 57 | 917.3 |
| 20260505114129 | 92 | 180 | 10.0 | 0.0 | 0.00 | 0.00 | 0.00 | 56 | 917.4 |
| 20260505114021 | 93 | 135 | 70.0 | 0.0 | 0.00 | 0.00 | 0.00 | 54 | 917.3 |
| 20260505113912 | 95 | 180 | 45.0 | 0.0 | 0.00 | 0.00 | 0.00 | 54 | 917.2 |
| 20260505113804 | 97 | 180 | 32.0 | 0.0 | 0.00 | 0.00 | 0.00 | 54 | 917.1 |
| 20260505113655 | 98 | 180 | 29.0 | 0.0 | 0.00 | 0.00 | 0.00 | 53 | 917.1 |
| 20260505113547 | 10 | 180 | 49.0 | 0.0 | 0.00 | 0.00 | 0.00 | 53 | 917.2 |
| 20260505113439 | 102 | 180 | 85.0 | 0.0 | 0.00 | 0.00 | 0.00 | 53 | 917.1 |
| 20260505113330 | 103 | 90 | 14.0 | 0.0 | 0.00 | 0.00 | 0.00 | 53 | 917.0 |
| 20260505113222 | 105 | 315 | 3.0 | 0.0 | 0.00 | 0.00 | 0.00 | 51 | 917.1 |
| 20260505113113 | 107 | 270 | 36.0 | 0.0 | 0.00 | 0.00 | 0.00 | 49 | 917.1 |
| 20260505113005 | 109 | 45 | 29.0 | 0.0 | 0.00 | 0.00 | 0.00 | 49 | 917.2 |
| 20260505112856 | 112 | 315 | 3.0 | 0.0 | 0.00 | 0.00 | 0.00 | 48 | 917.1 |
| 20260505112748 | 115 | 270 | 40.0 | 0.0 | 0.00 | 0.00 | 0.00 | 47 | 917.0 |
| 20260505112639 | 117 | 270 | 60.0 | 0.0 | 0.00 | 0.00 | 0.00 | 45 | 917.0 |
| 20260505112531 | 119 | 0 | 20.0 | 0.0 | 0.00 | 0.00 | 0.00 | 45 | 917.0 |
| 20260505112423 | 120 | 315 | 23.0 | 0.0 | 0.00 | 0.00 | 0.00 | 43 | 917.1 |
| 20260505112314 | 120 | 0 | 51.0 | 0.0 | 0.00 | 0.00 | 0.00 | 43 | 917.1 |
| 20260505112206 | 121 | 0 | 57.0 | 0.0 | 0.00 | 0.00 | 0.00 | 42 | 917.1 |
| 20260505112057 | 120 | 135 | 55.0 | 0.0 | 0.00 | 0.00 | 0.00 | 42 | 917.2 |
| 20260505111949 | 120 | 135 | 15.0 | 0.0 | 0.00 | 0.00 | 0.00 | 43 | 917.2 |
| 20260505111840 | 120 | 180 | 23.0 | 0.0 | 0.00 | 0.00 | 0.00 | 44 | 917.1 |
| 20260505111732 | 120 | 225 | 74.0 | 0.0 | 0.00 | 0.00 | 0.00 | 44 | 917.2 |
| 20260505111623 | 120 | 180 | 91.0 | 0.0 | 0.00 | 0.00 | 0.00 | 45 | 917.2 |
| 20260505111515 | 120 | 90 | 54.0 | 0.0 | 0.00 | 0.00 | 0.00 | 46 | 917.1 |
| 20260505111407 | 120 | 225 | 11.0 | 0.0 | 0.00 | 0.00 | 0.00 | 47 | 917.2 |
| 20260505111258 | 120 | 45 | 11.0 | 0.0 | 0.00 | 0.00 | 0.00 | 48 | 917.2 |
| 20260505111150 | 119 | 135 | 14.0 | 0.0 | 0.00 | 0.00 | 0.00 | 48 | 917.2 |
| 20260505111041 | 118 | 180 | 9.0 | 0.0 | 0.00 | 0.00 | 0.00 | 48 | 917.2 |
| 20260505110933 | 118 | 225 | 13.0 | 0.0 | 0.00 | 0.00 | 0.00 | 48 | 917.3 |
| 20260505110824 | 117 | 270 | 5.0 | 0.0 | 0.00 | 0.00 | 0.00 | 49 | 917.3 |
| 20260505110716 | 116 | 225 | 18.0 | 0.0 | 0.00 | 0.00 | 0.00 | 49 | 917.3 |
| 20260505110608 | 116 | 135 | 18.0 | 0.0 | 0.00 | 0.00 | 0.00 | 50 | 917.3 |
| 20260505110459 | 116 | 135 | 7.0 | 0.0 | 0.00 | 0.00 | 0.00 | 50 | 917.2 |
| 20260505110351 | 115 | 225 | 8.0 | 0.0 | 0.00 | 0.00 | 0.00 | 51 | 917.2 |
| 20260505110242 | 114 | 225 | 54.0 | 0.0 | 0.00 | 0.00 | 0.00 | 51 | 917.2 |
| 20260505110134 | 114 | 315 | 37.0 | 0.0 | 0.00 | 0.00 | 0.00 | 51 | 917.2 |
| 20260505102138 | 103 | 270 | 16.0 | 0.0 | 0.00 | 0.00 | 0.00 | 62 | 918.0 |
| 20260505102030 | 103 | 45 | 27.0 | 0.0 | 0.00 | 0.00 | 0.00 | 62 | 917.9 |
| 20260505101921 | 103 | 0 | 8.0 | 0.0 | 0.00 | 0.00 | 0.00 | 63 | 917.9 |
| 20260505101813 | 103 | 0 | 32.0 | 0.0 | 0.00 | 0.00 | 0.00 | 62 | 917.9 |
| 20260505101705 | 103 | 315 | 49.0 | 0.0 | 0.00 | 0.00 | 0.00 | 62 | 917.9 |
| 20260505101556 | 103 | 315 | 23.0 | 0.0 | 0.00 | 0.00 | 0.00 | 62 | 917.9 |
| 20260505101448 | 102 | 315 | 17.0 | 0.0 | 0.00 | 0.00 | 0.00 | 63 | 917.9 |
| 20260505101339 | 102 | 0 | 29.0 | 0.0 | 0.00 | 0.00 | 0.00 | 63 | 918.0 |
| 20260505101232 | 101 | 0 | 15.0 | 0.0 | 0.00 | 0.00 | 0.00 | 64 | 918.0 |
| 20260505101122 | 10 | 90 | 22.0 | 0.0 | 0.00 | 0.00 | 0.00 | 64 | 918.1 |
| 20260505101014 | 98 | 90 | 13.0 | 0.0 | 0.00 | 0.00 | 0.00 | 65 | 918.0 |
| 20260505100905 | 97 | 180 | 7.0 | 0.0 | 0.00 | 0.00 | 0.00 | 65 | 918.1 |
| 20260505100757 | 96 | 45 | 9.0 | 0.0 | 0.00 | 0.00 | 0.00 | 65 | 918.1 |
| 20260505100649 | 95 | 180 | 14.0 | 0.0 | 0.00 | 0.00 | 0.00 | 64 | 918.0 |
| 20260505100541 | 95 | 225 | 9.0 | 0.0 | 0.00 | 0.00 | 0.00 | 64 | 918.1 |
| 20260505100432 | 94 | 180 | 24.0 | 0.0 | 0.00 | 0.00 | 0.00 | 64 | 918.1 |
| 20260505100323 | 94 | 180 | 29.0 | 0.0 | 0.00 | 0.00 | 0.00 | 64 | 918.2 |
| 20260505100215 | 94 | 180 | 24.0 | 0.0 | 0.00 | 0.00 | 0.00 | 64 | 918.2 |
| 20260505100106 | 94 | 180 | 14.0 | 0.0 | 0.00 | 0.00 | 0.00 | 66 | 918.2 |
| 20260505095958 | 94 | 315 | 9.0 | 0.0 | 0.00 | 0.00 | 0.00 | 66 | 918.3 |
| 20260505095849 | 94 | 315 | 36.0 | 0.0 | 0.00 | 0.00 | 0.00 | 67 | 918.2 |
| 20260505095741 | 93 | 315 | 0.0 | 0.0 | 0.00 | 0.00 | 0.00 | 67 | 918.2 |
| 20260505095633 | 93 | 270 | 16.0 | 0.0 | 0.00 | 0.00 | 0.00 | 66 | 918.3 |
| 20260505095524 | 93 | 45 | 4.0 | 0.0 | 0.00 | 0.00 | 0.00 | 66 | 918.3 |
| 20260505095416 | 93 | 0 | 9.0 | 0.0 | 0.00 | 0.00 | 0.00 | 65 | 918.3 |
| 20260505095307 | 93 | 45 | 9.0 | 0.0 | 0.00 | 0.00 | 0.00 | 63 | 918.3 |
| 20260505095159 | 93 | 45 | 35.0 | 0.0 | 0.00 | 0.00 | 0.00 | 61 | 918.3 |
| 20260505095050 | 94 | 180 | 52.0 | 0.0 | 0.00 | 0.00 | 0.00 | 59 | 918.3 |
| 20260505094942 | 95 | 180 | 22.0 | 0.0 | 0.00 | 0.00 | 0.00 | 58 | 918.2 |
| 20260505094833 | 97 | 180 | 34.0 | 0.0 | 0.00 | 0.00 | 0.00 | 58 | 918.2 |
| 20260505094725 | 99 | 135 | 19.0 | 0.0 | 0.00 | 0.00 | 0.00 | 59 | 918.2 |
| 20260505094617 | 100 | 180 | 9.0 | 0.0 | 0.00 | 0.00 | 0.00 | 62 | 918.2 |
| 20260505094508 | 101 | 315 | 14.0 | 0.0 | 0.00 | 0.00 | 0.00 | 62 | 918.2 |
| 20260505094400 | 102 | 315 | 18.0 | 0.0 | 0.00 | 0.00 | 0.00 | 63 | 918.1 |
| 20260505094251 | 102 | 315 | 17.0 | 0.0 | 0.00 | 0.00 | 0.00 | 64 | 918.2 |
| 20260505094143 | 102 | 90 | 3.0 | 0.0 | 0.00 | 0.00 | 0.00 | 64 | 918.2 |
| 20260505094035 | 101 | 315 | 4.0 | 0.0 | 0.00 | 0.00 | 0.00 | 64 | 918.2 |
| 20260505093926 | 101 | 135 | 1.0 | 0.0 | 0.00 | 0.00 | 0.00 | 64 | 918.3 |
| 20260505093818 | 10 | 180 | 13.0 | 0.0 | 0.00 | 0.00 | 0.00 | 64 | 918.3 |
| 20260505093709 | 99 | 315 | 27.0 | 0.0 | 0.00 | 0.00 | 0.00 | 64 | 918.3 |
| 20260505093601 | 98 | 315 | 13.0 | 0.0 | 0.00 | 0.00 | 0.00 | 64 | 918.3 |
| 20260505093452 | 97 | 0 | 7.0 | 0.0 | 0.00 | 0.00 | 0.00 | 64 | 918.3 |
| 20260505093344 | 96 | 90 | 20.0 | 0.0 | 0.00 | 0.00 | 0.00 | 64 | 918.3 |
| 20260505093235 | 96 | 315 | 20.0 | 0.0 | 0.00 | 0.00 | 0.00 | 64 | 918.3 |
| 20260505093127 | 95 | 315 | 51.0 | 0.0 | 0.00 | 0.00 | 0.00 | 63 | 918.4 |
| 20260505093018 | 95 | 45 | 22.0 | 0.0 | 0.00 | 0.00 | 0.00 | 62 | 918.5 |
| 20260505092910 | 94 | 90 | 44.0 | 0.0 | 0.00 | 0.00 | 0.00 | 63 | 918.5 |
| 20260505092802 | 94 | 180 | 57.0 | 0.0 | 0.00 | 0.00 | 0.00 | 62 | 918.5 |
| 20260505092653 | 94 | 225 | 28.0 | 0.0 | 0.00 | 0.00 | 0.00 | 62 | 918.4 |
| 20260505092545 | 94 | 225 | 36.0 | 0.0 | 0.00 | 0.00 | 0.00 | 62 | 918.4 |
| 20260505092436 | 94 | 90 | 42.0 | 0.0 | 0.00 | 0.00 | 0.00 | 62 | 918.5 |
| 20260505092328 | 93 | 90 | 54.0 | 0.0 | 0.00 | 0.00 | 0.00 | 62 | 918.5 |
| 20260505092219 | 93 | 90 | 24.0 | 0.0 | 0.00 | 0.00 | 0.00 | 63 | 918.5 |
| 20260505092111 | 93 | 180 | 19.0 | 0.0 | 0.00 | 0.00 | 0.00 | 64 | 918.5 |
| 20260505092003 | 92 | 180 | 37.0 | 0.0 | 0.00 | 0.00 | 0.00 | 65 | 918.5 |
| 20260505091854 | 92 | 180 | 17.0 | 0.0 | 0.00 | 0.00 | 0.00 | 65 | 918.5 |
| 20260505091746 | 91 | 135 | 2.0 | 0.0 | 0.00 | 0.00 | 0.00 | 65 | 918.5 |
| 20260505091637 | 90 | 270 | 11.0 | 0.0 | 0.00 | 0.00 | 0.00 | 64 | 918.6 |
| 20260505091529 | 90 | 90 | 53.0 | 0.0 | 0.00 | 0.00 | 0.00 | 63 | 918.6 |
| 20260505091421 | 90 | 135 | 22.0 | 0.0 | 0.00 | 0.00 | 0.00 | 63 | 918.7 |
| 20260505091312 | 89 | 180 | 62.0 | 0.0 | 0.00 | 0.00 | 0.00 | 63 | 918.6 |